Time,TemperatureF,DewpointF,PressureIn,WindDirection,WindDirectionDegrees,WindSpeedMPH,WindSpeedGustMPH,Humidity,HourlyPrecipIn,Conditions,Clouds,dailyrainin,SolarRadiationWatts/m^2,SoftwareType,DateUTC
2013-05-16 00:02:00,66.4,52.5,29.72,ENE,60,0.0,0.0,61,0.00,SCT,,0.00,0.0,WeatherDisplay:10.37,2013-05-15 22:02:00,
2013-05-16 00:03:00,66.4,52.5,29.72,ENE,60,0.0,0.0,61,0.00,SCT,,0.00,0.0,WeatherDisplay:10.37,2013-05-15 22:03:00,
2013-05-16 00:07:00,66.5,52.2,29.72,ENE,60,0.0,0.0,60,0.00,SCT,,0.00,0.0,WeatherDisplay:10.37,2013-05-15 22:07:00,
2013-05-16 00:08:00,66.5,52.2,29.72,ENE,60,0.0,0.0,60,0.00,SCT,,0.00,0.0,WeatherDisplay:10.37,2013-05-15 22:08:00,
2013-05-16 00:10:00,66.5,52.2,29.72,ENE,61,0.0,0.0,60,0.00,SCT,,0.00,0.0,WeatherDisplay:10.37,2013-05-15 22:10:00,
2013-05-16 00:11:00,66.6,52.3,29.72,ENE,62,0.0,0.0,60,0.00,SCT,,0.00,0.0,WeatherDisplay:10.37,2013-05-15 22:11:00,
2013-05-16 00:13:00,66.6,52.3,29.72,ENE,63,0.0,0.0,60,0.00,SCT,,0.00,0.0,WeatherDisplay:10.37,2013-05-15 22:13:00,
2013-05-16 00:15:00,66.7,51.9,29.72,ENE,63,0.0,0.0,59,0.00,SCT,,0.00,0.0,WeatherDisplay:10.37,2013-05-15 22:15:00,
2013-05-16 00:16:00,66.7,51.9,29.72,ENE,63,0.0,0.0,59,0.00,SCT,,0.00,0.0,WeatherDisplay:10.37,2013-05-15 22:16:00,
2013-05-16 00:18:00,66.7,51.9,29.72,ENE,63,0.0,0.0,59,0.00,SCT,,0.00,0.0,WeatherDisplay:10.37,2013-05-15 22:18:00,
2013-05-16 00:19:00,66.7,51.9,29.72,ENE,58,0.0,0.0,59,0.00,SCT,,0.00,0.0,WeatherDisplay:10.37,2013-05-15 22:19:00,
2013-05-16 00:20:00,66.7,51.9,29.72,ENE,58,0.0,0.0,59,0.00,SCT,,0.00,0.0,WeatherDisplay:10.37,2013-05-15 22:20:00,
2013-05-16 00:21:00,66.7,51.9,29.71,ENE,60,0.0,0.0,59,0.00,SCT,,0.00,0.0,WeatherDisplay:10.37,2013-05-15 22:21:00,
2013-05-16 00:23:00,66.7,51.9,29.71,ENE,61,0.0,0.0,59,0.00,SCT,,0.00,0.0,WeatherDisplay:10.37,2013-05-15 22:23:00,
2013-05-16 00:25:00,66.7,51.9,29.71,ENE,60,0.0,0.0,59,0.00,SCT,,0.00,0.0,WeatherDisplay:10.37,2013-05-15 22:25:00,
2013-05-16 00:26:00,66.7,51.5,29.71,NE,55,0.0,0.0,58,0.00,SCT,,0.00,0.0,WeatherDisplay:10.37,2013-05-15 22:26:00,
2013-05-16 00:29:00,66.8,51.1,29.71,ENE,60,0.0,0.0,57,0.00,SCT,,0.00,0.0,WeatherDisplay:10.37,2013-05-15 22:29:00,
2013-05-16 00:30:00,66.8,51.1,29.71,ENE,62,0.0,0.0,57,0.00,SCT,,0.00,0.0,WeatherDisplay:10.37,2013-05-15 22:30:00,
2013-05-16 00:33:00,66.9,51.2,29.71,ENE,61,0.0,0.0,57,0.00,SCT,,0.00,0.0,WeatherDisplay:10.37,2013-05-15 22:33:00,
2013-05-16 00:34:00,66.9,50.7,29.71,ENE,61,0.0,0.0,56,0.00,SCT,,0.00,0.0,WeatherDisplay:10.37,2013-05-15 22:34:00,
2013-05-16 00:35:00,66.9,50.7,29.71,ENE,64,0.0,0.0,56,0.00,SCT,,0.00,0.0,WeatherDisplay:10.37,2013-05-15 22:35:00,
2013-05-16 00:36:00,67.0,50.8,29.71,ENE,63,0.0,0.0,56,0.00,SCT,,0.00,0.0,WeatherDisplay:10.37,2013-05-15 22:36:00,
2013-05-16 00:38:00,67.0,50.8,29.71,ENE,63,0.0,0.0,56,0.00,SCT,,0.00,0.0,WeatherDisplay:10.37,2013-05-15 22:38:00,
2013-05-16 00:40:00,67.0,50.8,29.71,ENE,63,0.0,0.0,56,0.00,SCT,,0.00,0.0,WeatherDisplay:10.37,2013-05-15 22:40:00,
2013-05-16 00:41:00,67.0,50.8,29.71,ENE,63,0.0,0.0,56,0.00,SCT,,0.00,0.0,WeatherDisplay:10.37,2013-05-15 22:41:00,
2013-05-16 00:43:00,67.1,50.9,29.71,ENE,59,0.0,0.0,56,0.00,SCT,,0.00,0.0,WeatherDisplay:10.37,2013-05-15 22:43:00,
2013-05-16 00:44:00,67.0,50.8,29.71,NE,55,0.0,0.0,56,0.00,SCT,,0.00,0.0,WeatherDisplay:10.37,2013-05-15 22:44:00,
2013-05-16 00:45:00,67.1,50.9,29.71,NE,56,0.0,0.0,56,0.00,SCT,,0.00,0.0,WeatherDisplay:10.37,2013-05-15 22:45:00,
2013-05-16 00:46:00,67.1,50.9,29.71,ENE,57,0.0,0.0,56,0.00,SCT,,0.00,0.0,WeatherDisplay:10.37,2013-05-15 22:46:00,
2013-05-16 00:48:00,67.0,50.8,29.71,ENE,57,0.0,0.0,56,0.00,SCT,,0.00,0.0,WeatherDisplay:10.37,2013-05-15 22:48:00,
2013-05-16 00:49:00,67.0,50.8,29.71,ENE,60,0.0,0.0,56,0.00,SCT,,0.00,0.0,WeatherDisplay:10.37,2013-05-15 22:49:00,
2013-05-16 00:50:00,67.0,50.8,29.71,ENE,61,0.0,0.0,56,0.00,SCT,,0.00,0.0,WeatherDisplay:10.37,2013-05-15 22:50:00,
2013-05-16 00:52:00,67.0,50.8,29.71,ENE,61,0.0,0.0,56,0.00,SCT,,0.00,0.0,WeatherDisplay:10.37,2013-05-15 22:52:00,
2013-05-16 00:53:00,67.0,50.8,29.71,ENE,61,0.0,0.0,56,0.00,SCT,,0.00,0.0,WeatherDisplay:10.37,2013-05-15 22:53:00,
2013-05-16 00:54:00,67.0,50.8,29.71,ENE,62,0.0,0.0,56,0.00,SCT,,0.00,0.0,WeatherDisplay:10.37,2013-05-15 22:54:00,
2013-05-16 00:56:00,67.0,50.3,29.70,ENE,63,0.0,0.0,55,0.00,SCT,,0.00,0.0,WeatherDisplay:10.37,2013-05-15 22:56:00,
2013-05-16 00:57:00,67.0,50.3,29.70,ENE,65,0.0,0.0,55,0.00,SCT,,0.00,0.0,WeatherDisplay:10.37,2013-05-15 22:57:00,
2013-05-16 01:00:00,67.1,50.4,29.70,ENE,65,0.0,0.0,55,0.00,SCT,,0.00,0.0,WeatherDisplay:10.37,2013-05-15 23:00:00,
2013-05-16 01:01:00,67.1,50.4,29.70,ENE,65,0.0,0.0,55,0.00,SCT,,0.00,0.0,WeatherDisplay:10.37,2013-05-15 23:01:00,
2013-05-16 01:03:00,67.1,50.4,29.70,ENE,65,0.0,0.0,55,0.00,SCT,,0.00,0.0,WeatherDisplay:10.37,2013-05-15 23:03:00,
2013-05-16 01:06:00,67.1,50.4,29.70,ENE,65,0.0,0.0,55,0.00,SCT,,0.00,0.0,WeatherDisplay:10.37,2013-05-15 23:06:00,
2013-05-16 01:09:00,67.1,49.9,29.70,ENE,65,0.0,0.0,54,0.00,SCT,,0.00,0.0,WeatherDisplay:10.37,2013-05-15 23:09:00,
2013-05-16 01:11:00,67.1,49.9,29.70,ENE,65,0.0,0.0,54,0.00,SCT,,0.00,0.0,WeatherDisplay:10.37,2013-05-15 23:11:00,
2013-05-16 01:12:00,67.1,49.9,29.70,ENE,65,0.0,0.0,54,0.00,SCT,,0.00,0.0,WeatherDisplay:10.37,2013-05-15 23:12:00,
2013-05-16 01:15:00,67.3,49.1,29.70,ENE,67,0.0,0.0,52,0.00,SCT,,0.00,0.0,WeatherDisplay:10.37,2013-05-15 23:15:00,
2013-05-16 01:16:00,67.3,49.1,29.70,ENE,67,0.0,0.0,52,0.00,SCT,,0.00,0.0,WeatherDisplay:10.37,2013-05-15 23:16:00,
2013-05-16 01:17:00,67.3,49.1,29.70,ENE,67,0.0,0.0,52,0.00,SCT,,0.00,0.0,WeatherDisplay:10.37,2013-05-15 23:17:00,
2013-05-16 01:18:00,67.4,49.2,29.70,ENE,67,0.0,0.0,52,0.00,SCT,,0.00,0.0,WeatherDisplay:10.37,2013-05-15 23:18:00,
2013-05-16 01:21:00,67.4,49.2,29.70,ENE,67,0.0,0.0,52,0.00,SCT,,0.00,0.0,WeatherDisplay:10.37,2013-05-15 23:21:00,
2013-05-16 01:22:00,67.5,49.3,29.70,ENE,67,0.0,0.0,52,0.00,SCT,,0.00,0.0,WeatherDisplay:10.37,2013-05-15 23:22:00,
2013-05-16 01:23:00,67.5,49.3,29.70,ENE,67,0.0,0.0,52,0.00,SCT,,0.00,0.0,WeatherDisplay:10.37,2013-05-15 23:23:00,
2013-05-16 01:26:00,67.5,49.3,29.69,ENE,67,0.0,0.0,52,0.00,SCT,,0.00,0.0,WeatherDisplay:10.37,2013-05-15 23:26:00,
2013-05-16 01:27:00,67.5,49.3,29.69,ENE,67,0.0,0.0,52,0.00,SCT,,0.00,0.0,WeatherDisplay:10.37,2013-05-15 23:27:00,
2013-05-16 01:28:00,67.5,49.3,29.69,ENE,67,0.0,0.0,52,0.00,SCT,,0.00,0.0,WeatherDisplay:10.37,2013-05-15 23:28:00,
2013-05-16 01:31:00,67.5,49.3,29.69,ENE,67,0.0,0.0,52,0.00,SCT,,0.00,0.0,WeatherDisplay:10.37,2013-05-15 23:31:00,
2013-05-16 01:32:00,67.5,49.3,29.69,ENE,67,0.0,0.0,52,0.00,SCT,,0.00,0.0,WeatherDisplay:10.37,2013-05-15 23:32:00,
2013-05-16 01:34:00,67.6,49.3,29.69,ENE,67,0.0,0.0,52,0.00,SCT,,0.00,0.0,WeatherDisplay:10.37,2013-05-15 23:34:00,
2013-05-16 01:37:00,67.6,49.3,29.69,ENE,67,0.0,0.0,52,0.00,SCT,,0.00,0.0,WeatherDisplay:10.37,2013-05-15 23:37:00,
2013-05-16 01:38:00,67.6,49.3,29.69,ENE,67,0.0,0.0,52,0.00,SCT,,0.00,0.0,WeatherDisplay:10.37,2013-05-15 23:38:00,
2013-05-16 01:40:00,67.6,49.3,29.69,ENE,67,0.0,0.0,52,0.00,SCT,,0.00,0.0,WeatherDisplay:10.37,2013-05-15 23:40:00,
2013-05-16 01:43:00,67.6,49.3,29.69,ENE,67,0.0,0.0,52,0.00,SCT,,0.00,0.0,WeatherDisplay:10.37,2013-05-15 23:43:00,
2013-05-16 01:44:00,67.6,49.3,29.69,ENE,67,0.0,0.0,52,0.00,SCT,,0.00,0.0,WeatherDisplay:10.37,2013-05-15 23:44:00,
2013-05-16 01:46:00,67.6,49.3,29.69,ENE,67,0.0,0.0,52,0.00,SCT,,0.00,0.0,WeatherDisplay:10.37,2013-05-15 23:46:00,
2013-05-16 01:48:00,67.6,49.3,29.69,ENE,67,0.0,0.0,52,0.00,SCT,,0.00,0.0,WeatherDisplay:10.37,2013-05-15 23:48:00,
2013-05-16 01:49:00,67.6,49.3,29.69,ENE,67,0.0,0.0,52,0.00,SCT,,0.00,0.0,WeatherDisplay:10.37,2013-05-15 23:49:00,
2013-05-16 01:51:00,67.6,49.3,29.69,ENE,67,0.0,0.0,52,0.00,SCT,,0.00,0.0,WeatherDisplay:10.37,2013-05-15 23:51:00,
2013-05-16 01:54:00,67.6,49.3,29.69,ENE,67,0.0,0.0,52,0.00,SCT,,0.00,0.0,WeatherDisplay:10.37,2013-05-15 23:54:00,
2013-05-16 01:57:00,67.6,48.8,29.69,ENE,67,0.0,0.0,51,0.00,SCT,,0.00,0.0,WeatherDisplay:10.37,2013-05-15 23:57:00,
2013-05-16 02:00:00,67.6,48.8,29.69,ENE,67,0.0,0.0,51,0.00,SCT,,0.00,0.0,WeatherDisplay:10.37,2013-05-16 00:00:00,
2013-05-16 02:01:00,67.6,48.8,29.69,ENE,67,0.0,0.0,51,0.00,SCT,,0.00,0.0,WeatherDisplay:10.37,2013-05-16 00:01:00,
2013-05-16 02:02:00,67.6,48.8,29.69,ENE,67,0.0,0.0,51,0.00,SCT,,0.00,0.0,WeatherDisplay:10.37,2013-05-16 00:02:00,
2013-05-16 02:05:00,67.7,48.9,29.69,ENE,67,0.0,0.0,51,0.00,SCT,,0.00,0.0,WeatherDisplay:10.37,2013-05-16 00:05:00,
2013-05-16 02:06:00,67.6,48.8,29.69,ENE,67,0.0,0.0,51,0.00,SCT,,0.00,0.0,WeatherDisplay:10.37,2013-05-16 00:06:00,
2013-05-16 02:08:00,67.7,48.9,29.69,ENE,67,0.0,0.0,51,0.00,SCT,,0.00,0.0,WeatherDisplay:10.37,2013-05-16 00:08:00,
2013-05-16 02:10:00,67.6,49.3,29.69,ENE,67,0.0,0.0,52,0.00,SCT,,0.00,0.0,WeatherDisplay:10.37,2013-05-16 00:10:00,
2013-05-16 02:11:00,67.6,49.3,29.69,ENE,67,0.0,0.0,52,0.00,SCT,,0.00,0.0,WeatherDisplay:10.37,2013-05-16 00:11:00,
2013-05-16 02:12:00,67.6,49.3,29.69,ENE,67,0.0,0.0,52,0.00,SCT,,0.00,0.0,WeatherDisplay:10.37,2013-05-16 00:12:00,
2013-05-16 02:13:00,67.6,49.3,29.69,ENE,67,0.0,0.0,52,0.00,SCT,,0.00,0.0,WeatherDisplay:10.37,2013-05-16 00:13:00,
2013-05-16 02:16:00,67.5,49.3,29.68,ENE,67,0.0,0.0,52,0.00,SCT,,0.00,0.0,WeatherDisplay:10.37,2013-05-16 00:16:00,
2013-05-16 02:18:00,67.5,48.7,29.68,ENE,67,0.0,0.0,51,0.00,SCT,,0.00,0.0,WeatherDisplay:10.37,2013-05-16 00:18:00,
2013-05-16 02:20:00,67.5,48.7,29.69,ENE,66,0.0,0.0,51,0.00,SCT,,0.00,0.0,WeatherDisplay:10.37,2013-05-16 00:20:00,
2013-05-16 02:21:00,67.5,48.7,29.68,ENE,65,0.0,0.0,51,0.00,SCT,,0.00,0.0,WeatherDisplay:10.37,2013-05-16 00:21:00,
2013-05-16 02:23:00,67.4,48.6,29.68,ENE,64,0.0,0.0,51,0.00,SCT,,0.00,0.0,WeatherDisplay:10.37,2013-05-16 00:23:00,
2013-05-16 02:25:00,67.4,48.6,29.67,ENE,61,0.0,0.0,51,0.00,SCT,,0.00,0.0,WeatherDisplay:10.37,2013-05-16 00:25:00,
2013-05-16 02:26:00,67.3,48.5,29.68,ENE,61,0.0,0.0,51,0.00,SCT,,0.00,0.0,WeatherDisplay:10.37,2013-05-16 00:26:00,
2013-05-16 02:28:00,67.3,49.1,29.68,ENE,61,0.0,0.0,52,0.00,SCT,,0.00,0.0,WeatherDisplay:10.37,2013-05-16 00:28:00,
2013-05-16 02:29:00,67.3,49.1,29.68,ENE,61,0.0,0.0,52,0.00,SCT,,0.00,0.0,WeatherDisplay:10.37,2013-05-16 00:29:00,
2013-05-16 02:31:00,67.2,49.0,29.68,ENE,61,0.0,0.0,52,0.00,SCT,,0.00,0.0,WeatherDisplay:10.37,2013-05-16 00:31:00,
2013-05-16 02:32:00,67.2,49.0,29.68,ENE,61,0.0,0.0,52,0.00,SCT,,0.00,0.0,WeatherDisplay:10.37,2013-05-16 00:32:00,
2013-05-16 02:33:00,67.2,49.0,29.68,ENE,61,0.0,0.0,52,0.00,SCT,,0.00,0.0,WeatherDisplay:10.37,2013-05-16 00:33:00,
2013-05-16 02:35:00,67.2,49.0,29.67,ENE,61,0.0,0.0,52,0.00,SCT,,0.00,0.0,WeatherDisplay:10.37,2013-05-16 00:35:00,
2013-05-16 02:36:00,67.1,48.9,29.68,ENE,61,0.0,0.0,52,0.00,SCT,,0.00,0.0,WeatherDisplay:10.37,2013-05-16 00:36:00,
2013-05-16 02:38:00,67.1,48.9,29.67,ENE,61,0.0,0.0,52,0.00,SCT,,0.00,0.0,WeatherDisplay:10.37,2013-05-16 00:38:00,
2013-05-16 02:39:00,67.1,48.9,29.67,ENE,61,0.0,0.0,52,0.00,SCT,,0.00,0.0,WeatherDisplay:10.37,2013-05-16 00:39:00,
2013-05-16 02:40:00,67.1,48.9,29.67,ENE,58,0.0,0.0,52,0.00,SCT,,0.00,0.0,WeatherDisplay:10.37,2013-05-16 00:40:00,
2013-05-16 02:42:00,67.1,48.9,29.67,ENE,58,0.0,0.0,52,0.00,SCT,,0.00,0.0,WeatherDisplay:10.37,2013-05-16 00:42:00,
2013-05-16 02:43:00,67.1,48.9,29.67,ENE,58,0.0,0.0,52,0.00,SCT,,0.00,0.0,WeatherDisplay:10.37,2013-05-16 00:43:00,
2013-05-16 02:44:00,67.1,48.9,29.67,ENE,58,0.0,0.0,52,0.00,SCT,,0.00,0.0,WeatherDisplay:10.37,2013-05-16 00:44:00,
2013-05-16 02:45:00,67.1,48.9,29.67,ENE,57,0.0,0.0,52,0.00,SCT,,0.00,0.0,WeatherDisplay:10.37,2013-05-16 00:45:00,
2013-05-16 02:47:00,67.1,48.9,29.67,NE,50,0.0,0.0,52,0.00,SCT,,0.00,0.0,WeatherDisplay:10.37,2013-05-16 00:47:00,
2013-05-16 02:49:00,67.1,48.9,29.67,NE,46,0.0,0.0,52,0.00,SCT,,0.00,0.0,WeatherDisplay:10.37,2013-05-16 00:49:00,
2013-05-16 02:50:00,67.1,48.9,29.66,NE,55,0.0,0.0,52,0.00,SCT,,0.00,0.0,WeatherDisplay:10.37,2013-05-16 00:50:00,
2013-05-16 02:54:00,67.2,49.0,29.66,NE,51,0.0,0.0,52,0.00,SCT,,0.00,0.0,WeatherDisplay:10.37,2013-05-16 00:54:00,
2013-05-16 02:55:00,67.3,49.1,29.66,ENE,58,0.0,0.0,52,0.00,SCT,,0.00,0.0,WeatherDisplay:10.37,2013-05-16 00:55:00,
2013-05-16 02:59:00,67.3,48.5,29.66,ENE,65,0.0,0.0,51,0.00,SCT,,0.00,0.0,WeatherDisplay:10.37,2013-05-16 00:59:00,
2013-05-16 03:00:00,67.3,48.5,29.66,ENE,64,0.0,0.0,51,0.00,SCT,,0.00,0.0,WeatherDisplay:10.37,2013-05-16 01:00:00,
2013-05-16 03:01:00,67.3,48.5,29.66,ENE,76,0.0,0.0,51,0.00,SCT,,0.00,0.0,WeatherDisplay:10.37,2013-05-16 01:01:00,
2013-05-16 03:05:00,67.3,49.1,29.66,ENE,74,0.0,0.0,52,0.00,SCT,,0.00,0.0,WeatherDisplay:10.37,2013-05-16 01:05:00,
2013-05-16 03:07:00,67.3,49.1,29.66,ENE,67,0.0,0.0,52,0.00,SCT,,0.00,0.0,WeatherDisplay:10.37,2013-05-16 01:07:00,
2013-05-16 03:10:00,67.3,49.1,29.65,ENE,62,0.0,0.0,52,0.00,SCT,,0.00,0.0,WeatherDisplay:10.37,2013-05-16 01:10:00,
2013-05-16 03:12:00,67.3,49.1,29.66,ENE,61,0.0,0.0,52,0.00,SCT,,0.00,0.0,WeatherDisplay:10.37,2013-05-16 01:12:00,
2013-05-16 03:13:00,67.2,49.0,29.65,ENE,61,0.0,0.0,52,0.00,SCT,,0.00,0.0,WeatherDisplay:10.37,2013-05-16 01:13:00,
2013-05-16 03:15:00,67.2,49.0,29.65,ENE,61,0.0,0.0,52,0.00,SCT,,0.00,0.0,WeatherDisplay:10.37,2013-05-16 01:15:00,
2013-05-16 03:17:00,67.1,48.9,29.65,ENE,61,0.0,0.0,52,0.00,SCT,,0.00,0.0,WeatherDisplay:10.37,2013-05-16 01:17:00,
2013-05-16 03:18:00,67.1,48.9,29.65,ENE,61,0.0,0.0,52,0.00,SCT,,0.00,0.0,WeatherDisplay:10.37,2013-05-16 01:18:00,
2013-05-16 03:22:00,67.0,48.8,29.65,ENE,61,0.0,0.0,52,0.00,SCT,,0.00,0.0,WeatherDisplay:10.37,2013-05-16 01:22:00,
2013-05-16 03:23:00,67.0,48.8,29.65,ENE,61,0.0,0.0,52,0.00,SCT,,0.00,0.0,WeatherDisplay:10.37,2013-05-16 01:23:00,
2013-05-16 03:24:00,67.0,48.8,29.65,ENE,61,0.0,0.0,52,0.00,SCT,,0.00,0.0,WeatherDisplay:10.37,2013-05-16 01:24:00,
2013-05-16 03:27:00,67.0,48.8,29.65,ENE,62,0.0,0.0,52,0.00,SCT,,0.00,0.0,WeatherDisplay:10.37,2013-05-16 01:27:00,
2013-05-16 03:28:00,67.0,48.8,29.65,ENE,62,0.0,0.0,52,0.00,SCT,,0.00,0.0,WeatherDisplay:10.37,2013-05-16 01:28:00,
2013-05-16 03:29:00,67.0,48.8,29.65,ENE,62,0.0,0.0,52,0.00,SCT,,0.00,0.0,WeatherDisplay:10.37,2013-05-16 01:29:00,
2013-05-16 03:32:00,67.0,48.8,29.65,ENE,69,0.0,0.0,52,0.00,SCT,,0.00,0.0,WeatherDisplay:10.37,2013-05-16 01:32:00,
2013-05-16 03:34:00,67.1,48.9,29.65,ENE,69,0.0,0.0,52,0.00,SCT,,0.00,0.0,WeatherDisplay:10.37,2013-05-16 01:34:00,
2013-05-16 03:35:00,67.1,48.9,29.65,ENE,69,0.0,0.0,52,0.00,SCT,,0.00,0.0,WeatherDisplay:10.37,2013-05-16 01:35:00,
2013-05-16 03:37:00,67.1,48.9,29.65,ENE,73,0.0,0.0,52,0.00,SCT,,0.00,0.0,WeatherDisplay:10.37,2013-05-16 01:37:00,
2013-05-16 03:39:00,67.1,48.9,29.65,ENE,74,0.0,0.0,52,0.00,SCT,,0.00,0.0,WeatherDisplay:10.37,2013-05-16 01:39:00,
2013-05-16 03:40:00,67.1,48.9,29.65,ENE,74,0.0,0.0,52,0.00,SCT,,0.00,0.0,WeatherDisplay:10.37,2013-05-16 01:40:00,
2013-05-16 03:42:00,67.1,48.9,29.64,ENE,75,0.0,0.0,52,0.00,SCT,,0.00,0.0,WeatherDisplay:10.37,2013-05-16 01:42:00,
2013-05-16 03:45:00,67.2,49.0,29.64,ENE,75,0.0,0.0,52,0.00,SCT,,0.00,0.0,WeatherDisplay:10.37,2013-05-16 01:45:00,
2013-05-16 03:46:00,67.2,49.0,29.64,ENE,75,0.0,0.0,52,0.00,SCT,,0.00,0.0,WeatherDisplay:10.37,2013-05-16 01:46:00,
2013-05-16 03:48:00,67.2,49.0,29.64,ENE,76,0.0,0.0,52,0.00,SCT,,0.00,0.0,WeatherDisplay:10.37,2013-05-16 01:48:00,
2013-05-16 03:50:00,67.3,49.1,29.64,ENE,76,0.0,0.0,52,0.00,SCT,,0.00,0.0,WeatherDisplay:10.37,2013-05-16 01:50:00,
2013-05-16 03:51:00,67.3,49.1,29.64,ENE,76,0.0,0.0,52,0.00,SCT,,0.00,0.0,WeatherDisplay:10.37,2013-05-16 01:51:00,
2013-05-16 03:53:00,67.3,49.1,29.64,ENE,77,0.0,0.0,52,0.00,SCT,,0.00,0.0,WeatherDisplay:10.37,2013-05-16 01:53:00,
2013-05-16 03:56:00,67.4,49.2,29.64,East,79,0.0,0.0,52,0.00,SCT,,0.00,0.0,WeatherDisplay:10.37,2013-05-16 01:56:00,
2013-05-16 03:58:00,67.5,49.3,29.64,East,80,0.0,0.0,52,0.00,SCT,,0.00,0.0,WeatherDisplay:10.37,2013-05-16 01:58:00,
2013-05-16 04:01:00,67.5,49.3,29.63,East,85,0.0,0.0,52,0.00,SCT,,0.00,0.0,WeatherDisplay:10.37,2013-05-16 02:01:00,
2013-05-16 04:02:00,67.6,49.3,29.63,East,80,0.0,0.0,52,0.00,SCT,,0.00,0.0,WeatherDisplay:10.37,2013-05-16 02:02:00,
2013-05-16 04:03:00,67.6,49.3,29.63,ENE,74,0.0,0.0,52,0.00,SCT,,0.00,0.0,WeatherDisplay:10.37,2013-05-16 02:03:00,
2013-05-16 04:06:00,67.6,48.8,29.63,ENE,75,0.0,0.0,51,0.00,SCT,,0.00,0.0,WeatherDisplay:10.37,2013-05-16 02:06:00,
2013-05-16 04:07:00,67.7,48.9,29.63,ENE,75,0.0,0.0,51,0.00,SCT,,0.00,0.0,WeatherDisplay:10.37,2013-05-16 02:07:00,
2013-05-16 04:08:00,67.7,48.9,29.62,ENE,75,0.0,0.0,51,0.00,SCT,,0.00,0.0,WeatherDisplay:10.37,2013-05-16 02:08:00,
2013-05-16 04:11:00,67.7,49.4,29.62,ENE,76,0.0,0.0,52,0.00,SCT,,0.00,0.0,WeatherDisplay:10.37,2013-05-16 02:11:00,
2013-05-16 04:12:00,67.7,49.4,29.62,ENE,78,0.0,0.0,52,0.00,SCT,,0.00,0.0,WeatherDisplay:10.37,2013-05-16 02:12:00,
2013-05-16 04:14:00,67.7,49.4,29.61,ENE,63,0.0,0.0,52,0.00,SCT,,0.00,0.0,WeatherDisplay:10.37,2013-05-16 02:14:00,
2013-05-16 04:16:00,67.6,49.3,29.61,ENE,74,0.0,0.0,52,0.00,SCT,,0.00,0.0,WeatherDisplay:10.37,2013-05-16 02:16:00,
2013-05-16 04:17:00,67.6,49.3,29.61,ENE,62,0.0,0.0,52,0.00,SCT,,0.00,0.0,WeatherDisplay:10.37,2013-05-16 02:17:00,
2013-05-16 04:18:00,67.6,49.3,29.61,ENE,77,0.0,0.0,52,0.00,SCT,,0.00,0.0,WeatherDisplay:10.37,2013-05-16 02:18:00,
2013-05-16 04:19:00,67.6,49.3,29.61,ENE,77,0.0,0.0,52,0.00,SCT,,0.00,0.0,WeatherDisplay:10.37,2013-05-16 02:19:00,
2013-05-16 04:21:00,67.6,49.3,29.61,ENE,67,0.0,0.0,52,0.00,SCT,,0.00,0.0,WeatherDisplay:10.37,2013-05-16 02:21:00,
2013-05-16 04:22:00,67.6,49.3,29.61,East,82,0.0,0.0,52,0.00,SCT,,0.00,0.0,WeatherDisplay:10.37,2013-05-16 02:22:00,
2013-05-16 04:24:00,67.6,49.3,29.60,ENE,76,0.0,0.0,52,0.00,SCT,,0.00,0.0,WeatherDisplay:10.37,2013-05-16 02:24:00,
2013-05-16 04:27:00,67.6,49.3,29.60,ENE,68,0.0,0.0,52,0.00,SCT,,0.00,0.0,WeatherDisplay:10.37,2013-05-16 02:27:00,
2013-05-16 04:28:00,67.6,49.3,29.60,ENE,70,0.0,0.0,52,0.00,SCT,,0.00,0.0,WeatherDisplay:10.37,2013-05-16 02:28:00,
2013-05-16 04:29:00,67.6,49.3,29.60,East,85,0.0,0.0,52,0.00,SCT,,0.00,0.0,WeatherDisplay:10.37,2013-05-16 02:29:00,
2013-05-16 04:33:00,67.6,49.3,29.61,ENE,61,0.0,0.0,52,0.00,SCT,,0.00,0.0,WeatherDisplay:10.37,2013-05-16 02:33:00,
2013-05-16 04:34:00,67.6,49.3,29.61,ENE,61,0.0,0.0,52,0.00,SCT,,0.00,0.0,WeatherDisplay:10.37,2013-05-16 02:34:00,
2013-05-16 04:35:00,67.6,49.3,29.61,ENE,61,0.0,0.0,52,0.00,SCT,,0.00,0.0,WeatherDisplay:10.37,2013-05-16 02:35:00,
2013-05-16 04:40:00,67.6,49.3,29.62,ENE,61,0.0,0.0,52,0.00,SCT,,0.00,0.0,WeatherDisplay:10.37,2013-05-16 02:40:00,
2013-05-16 04:45:00,67.6,49.3,29.62,ENE,61,0.0,0.0,52,0.00,SCT,,0.00,0.0,WeatherDisplay:10.37,2013-05-16 02:45:00,
2013-05-16 04:46:00,67.6,49.3,29.61,ENE,61,0.0,0.0,52,0.00,SCT,,0.00,0.0,WeatherDisplay:10.37,2013-05-16 02:46:00,
2013-05-16 04:50:00,67.6,49.3,29.61,ENE,64,0.0,0.0,52,0.00,SCT,,0.00,0.0,WeatherDisplay:10.37,2013-05-16 02:50:00,
2013-05-16 04:51:00,67.6,49.3,29.61,ENE,76,0.0,0.0,52,0.00,SCT,,0.00,0.0,WeatherDisplay:10.37,2013-05-16 02:51:00,
2013-05-16 04:55:00,67.6,49.9,29.60,ENE,63,0.0,0.0,53,0.00,SCT,,0.00,0.0,WeatherDisplay:10.37,2013-05-16 02:55:00,
2013-05-16 04:56:00,67.5,49.8,29.60,ENE,59,0.0,0.0,53,0.00,SCT,,0.00,0.0,WeatherDisplay:10.37,2013-05-16 02:56:00,
2013-05-16 04:57:00,67.5,49.8,29.59,ENE,72,0.0,0.0,53,0.00,SCT,,0.00,0.0,WeatherDisplay:10.37,2013-05-16 02:57:00,
2013-05-16 05:01:00,67.4,49.7,29.59,ENE,64,0.0,0.0,53,0.00,SCT,,0.00,0.0,WeatherDisplay:10.37,2013-05-16 03:01:00,
2013-05-16 05:03:00,67.4,49.7,29.59,East,84,0.0,0.0,53,0.00,SCT,,0.00,0.0,WeatherDisplay:10.37,2013-05-16 03:03:00,
2013-05-16 05:06:00,67.4,49.7,29.59,ENE,76,0.0,0.0,53,0.00,SCT,,0.00,0.0,WeatherDisplay:10.37,2013-05-16 03:06:00,
2013-05-16 05:07:00,67.4,49.7,29.59,ENE,75,0.0,0.0,53,0.00,SCT,,0.00,0.0,WeatherDisplay:10.37,2013-05-16 03:07:00,
2013-05-16 05:08:00,67.4,49.7,29.59,ENE,69,0.0,0.0,53,0.00,SCT,,0.00,0.0,WeatherDisplay:10.37,2013-05-16 03:08:00,
2013-05-16 05:12:00,67.5,49.8,29.59,East,80,0.0,0.0,53,0.00,SCT,,0.00,0.0,WeatherDisplay:10.37,2013-05-16 03:12:00,
2013-05-16 05:13:00,67.5,49.8,29.59,ENE,78,0.0,0.0,53,0.00,SCT,,0.00,0.0,WeatherDisplay:10.37,2013-05-16 03:13:00,
2013-05-16 05:17:00,67.5,49.8,29.59,East,88,0.0,0.0,53,0.00,SCT,,0.00,0.0,WeatherDisplay:10.37,2013-05-16 03:17:00,
2013-05-16 05:18:00,67.5,49.8,29.59,East,80,0.0,0.0,53,0.00,SCT,,0.00,0.0,WeatherDisplay:10.37,2013-05-16 03:18:00,
2013-05-16 05:22:00,67.4,50.2,29.59,ENE,57,0.0,0.0,54,0.00,SCT,,0.00,0.0,WeatherDisplay:10.37,2013-05-16 03:22:00,
2013-05-16 05:23:00,67.4,50.2,29.59,ENE,57,0.0,0.0,54,0.00,SCT,,0.00,0.0,WeatherDisplay:10.37,2013-05-16 03:23:00,
2013-05-16 05:25:00,67.4,50.2,29.59,ENE,67,0.0,0.0,54,0.00,SCT,,0.00,0.0,WeatherDisplay:10.37,2013-05-16 03:25:00,
2013-05-16 05:27:00,67.5,50.3,29.59,East,86,0.0,0.0,54,0.00,SCT,,0.00,0.0,WeatherDisplay:10.37,2013-05-16 03:27:00,
2013-05-16 05:28:00,67.5,50.3,29.59,East,86,0.0,0.0,54,0.00,SCT,,0.00,0.0,WeatherDisplay:10.37,2013-05-16 03:28:00,
2013-05-16 05:29:00,67.5,50.3,29.59,East,86,0.0,0.0,54,0.00,SCT,,0.00,0.0,WeatherDisplay:10.37,2013-05-16 03:29:00,
2013-05-16 05:30:00,67.5,50.3,29.58,ENE,59,0.0,0.0,54,0.00,SCT,,0.00,0.0,WeatherDisplay:10.37,2013-05-16 03:30:00,
2013-05-16 05:32:00,67.5,49.8,29.59,NE,43,0.0,0.0,53,0.00,SCT,,0.00,0.0,WeatherDisplay:10.37,2013-05-16 03:32:00,
2013-05-16 05:33:00,67.5,49.8,29.59,ENE,62,0.0,0.0,53,0.00,SCT,,0.00,0.0,WeatherDisplay:10.37,2013-05-16 03:33:00,
2013-05-16 05:34:00,67.5,49.8,29.59,NE,54,0.0,0.0,53,0.00,SCT,,0.00,0.0,WeatherDisplay:10.37,2013-05-16 03:34:00,
2013-05-16 05:35:00,67.5,49.8,29.59,NE,54,0.0,0.0,53,0.00,SCT,,0.00,0.0,WeatherDisplay:10.37,2013-05-16 03:35:00,
2013-05-16 05:38:00,67.5,49.3,29.59,NE,46,0.0,0.0,52,0.00,SCT,,0.00,0.0,WeatherDisplay:10.37,2013-05-16 03:38:00,
2013-05-16 05:40:00,67.6,49.3,29.59,NE,44,0.0,0.0,52,0.00,SCT,,0.00,0.0,WeatherDisplay:10.37,2013-05-16 03:40:00,
2013-05-16 05:42:00,67.6,49.3,29.60,NE,37,0.0,0.0,52,0.00,SCT,,0.00,0.0,WeatherDisplay:10.37,2013-05-16 03:42:00,
2013-05-16 05:43:00,67.6,49.3,29.60,NE,37,0.0,0.0,52,0.00,SCT,,0.00,0.0,WeatherDisplay:10.37,2013-05-16 03:43:00,
2013-05-16 05:44:00,67.6,49.3,29.60,NE,37,0.0,0.0,52,0.00,SCT,,0.00,0.0,WeatherDisplay:10.37,2013-05-16 03:44:00,
2013-05-16 05:45:00,67.6,49.3,29.60,ENE,65,0.0,0.0,52,0.00,SCT,,0.00,0.0,WeatherDisplay:10.37,2013-05-16 03:45:00,
2013-05-16 05:47:00,67.6,49.3,29.60,ENE,65,0.0,0.0,52,0.00,SCT,,0.00,0.0,WeatherDisplay:10.37,2013-05-16 03:47:00,
2013-05-16 05:48:00,67.6,49.3,29.60,ENE,65,0.0,0.0,52,0.00,SCT,,0.00,0.0,WeatherDisplay:10.37,2013-05-16 03:48:00,
2013-05-16 05:49:00,67.6,49.3,29.60,ENE,65,0.0,0.0,52,0.00,SCT,,0.00,0.0,WeatherDisplay:10.37,2013-05-16 03:49:00,
2013-05-16 05:50:00,67.6,49.3,29.60,ENE,65,0.0,0.0,52,0.00,SCT,,0.00,0.0,WeatherDisplay:10.37,2013-05-16 03:50:00,
2013-05-16 05:53:00,67.6,49.3,29.61,ENE,65,0.0,0.0,52,0.00,SCT,,0.00,0.0,WeatherDisplay:10.37,2013-05-16 03:53:00,
2013-05-16 05:55:00,67.5,49.3,29.60,ENE,65,0.0,0.0,52,0.00,OVC,,0.00,0.0,WeatherDisplay:10.37,2013-05-16 03:55:00,
2013-05-16 05:58:00,67.5,49.3,29.60,ENE,65,0.0,0.0,52,0.00,OVC,,0.00,0.0,WeatherDisplay:10.37,2013-05-16 03:58:00,
2013-05-16 06:00:00,67.5,49.3,29.60,ENE,65,0.0,0.0,52,0.00,OVC,,0.00,0.0,WeatherDisplay:10.37,2013-05-16 04:00:00,
2013-05-16 06:01:00,67.5,49.3,29.60,ENE,65,0.0,0.0,52,0.00,OVC,,0.00,0.0,WeatherDisplay:10.37,2013-05-16 04:01:00,
2013-05-16 06:06:00,67.4,49.2,29.60,ENE,65,0.0,0.0,52,0.00,OVC,,0.00,0.0,WeatherDisplay:10.37,2013-05-16 04:06:00,
2013-05-16 06:11:00,67.3,49.1,29.60,ENE,65,0.0,0.0,52,0.00,SCT,,0.00,5.0,WeatherDisplay:10.37,2013-05-16 04:11:00,
2013-05-16 06:12:00,67.3,49.1,29.60,ENE,65,0.0,0.0,52,0.00,BKN,,0.00,5.0,WeatherDisplay:10.37,2013-05-16 04:12:00,
2013-05-16 06:16:00,67.3,49.6,29.61,ENE,65,0.0,0.0,53,0.00,BKN,,0.00,5.0,WeatherDisplay:10.37,2013-05-16 04:16:00,
2013-05-16 06:17:00,67.3,49.6,29.61,ENE,65,0.0,0.0,53,0.00,BKN,,0.00,5.0,WeatherDisplay:10.37,2013-05-16 04:17:00,
2013-05-16 06:21:00,67.3,49.6,29.61,ENE,65,0.0,0.0,53,0.00,BKN,,0.00,5.0,WeatherDisplay:10.37,2013-05-16 04:21:00,
2013-05-16 06:22:00,67.3,49.6,29.61,ENE,65,0.0,0.0,53,0.00,BKN,,0.00,0.0,WeatherDisplay:10.37,2013-05-16 04:22:00,
2013-05-16 06:26:00,67.3,49.6,29.63,ENE,65,0.0,0.0,53,0.00,OVC,,0.00,0.0,WeatherDisplay:10.37,2013-05-16 04:26:00,
2013-05-16 06:27:00,67.3,49.6,29.63,ENE,65,0.0,0.0,53,0.00,OVC,,0.00,0.0,WeatherDisplay:10.37,2013-05-16 04:27:00,
2013-05-16 06:28:00,67.4,49.7,29.63,ENE,65,0.0,0.0,53,0.00,OVC,,0.00,0.0,WeatherDisplay:10.37,2013-05-16 04:28:00,
2013-05-16 06:31:00,67.3,49.6,29.64,ENE,65,0.0,0.0,53,0.00,OVC,,0.00,0.0,WeatherDisplay:10.37,2013-05-16 04:31:00,
2013-05-16 06:32:00,67.3,49.6,29.64,ENE,65,0.0,0.0,53,0.00,OVC,,0.00,0.0,WeatherDisplay:10.37,2013-05-16 04:32:00,
2013-05-16 06:33:00,67.3,49.6,29.64,ENE,65,0.0,0.0,53,0.00,OVC,,0.00,0.0,WeatherDisplay:10.37,2013-05-16 04:33:00,
2013-05-16 06:36:00,67.4,50.7,29.66,WSW,255,0.0,0.0,55,0.00,OVC,,0.00,0.0,WeatherDisplay:10.37,2013-05-16 04:36:00,
2013-05-16 06:37:00,67.4,51.2,29.66,WSW,257,0.0,0.0,56,0.00,OVC,,0.00,0.0,WeatherDisplay:10.37,2013-05-16 04:37:00,
2013-05-16 06:38:00,67.3,51.1,29.66,West,266,0.0,0.0,56,0.00,OVC,,0.00,0.0,WeatherDisplay:10.37,2013-05-16 04:38:00,
2013-05-16 06:42:00,66.8,51.5,29.67,West,265,0.0,0.0,58,0.01,RA,,0.01,5.0,WeatherDisplay:10.37,2013-05-16 04:42:00,
2013-05-16 06:43:00,66.6,52.3,29.67,WSW,255,0.0,0.0,60,0.01,RA,,0.01,7.0,WeatherDisplay:10.37,2013-05-16 04:43:00,
2013-05-16 06:47:00,66.2,52.8,29.66,West,273,0.0,0.0,62,0.01,RA,,0.01,7.0,WeatherDisplay:10.37,2013-05-16 04:47:00,
2013-05-16 06:48:00,66.1,52.7,29.66,West,277,0.0,0.0,62,0.02,RA,,0.02,7.0,WeatherDisplay:10.37,2013-05-16 04:48:00,
2013-05-16 06:52:00,65.7,53.2,29.66,WNW,296,0.0,0.0,64,0.03,RA,,0.03,9.0,WeatherDisplay:10.37,2013-05-16 04:52:00,
2013-05-16 06:53:00,65.6,53.5,29.66,NNW,336,0.0,0.0,65,0.03,RA,,0.03,9.0,WeatherDisplay:10.37,2013-05-16 04:53:00,
2013-05-16 06:57:00,65.5,53.4,29.65,NNW,336,0.0,0.0,65,0.03,RA,,0.03,9.0,WeatherDisplay:10.37,2013-05-16 04:57:00,
2013-05-16 06:58:00,65.5,53.4,29.65,NNW,336,0.0,0.0,65,0.03,RA,,0.03,9.0,WeatherDisplay:10.37,2013-05-16 04:58:00,
2013-05-16 06:59:00,65.5,53.4,29.65,NNW,336,0.0,0.0,65,0.03,RA,,0.03,9.0,WeatherDisplay:10.37,2013-05-16 04:59:00,
2013-05-16 07:02:00,65.5,53.4,29.65,NNW,336,0.0,0.0,65,0.03,BKN,,0.03,9.0,WeatherDisplay:10.37,2013-05-16 05:02:00,
2013-05-16 07:03:00,65.5,53.4,29.65,NNW,336,0.0,0.0,65,0.03,BKN,,0.03,9.0,WeatherDisplay:10.37,2013-05-16 05:03:00,
2013-05-16 07:04:00,65.5,53.4,29.65,NNW,336,0.0,0.0,65,0.03,BKN,,0.03,9.0,WeatherDisplay:10.37,2013-05-16 05:04:00,
2013-05-16 07:07:00,65.5,53.4,29.65,NNW,336,0.0,0.0,65,0.03,BKN,,0.03,9.0,WeatherDisplay:10.37,2013-05-16 05:07:00,
2013-05-16 07:08:00,65.5,53.4,29.65,NNW,336,0.0,0.0,65,0.03,BKN,,0.03,9.0,WeatherDisplay:10.37,2013-05-16 05:08:00,
2013-05-16 07:09:00,65.5,53.4,29.65,NNW,336,0.0,0.0,65,0.03,BKN,,0.03,9.0,WeatherDisplay:10.37,2013-05-16 05:09:00,
2013-05-16 07:12:00,65.5,53.4,29.65,NNW,336,0.0,0.0,65,0.03,BKN,,0.03,9.0,WeatherDisplay:10.37,2013-05-16 05:12:00,
2013-05-16 07:13:00,65.5,53.4,29.65,NNW,336,0.0,0.0,65,0.03,BKN,,0.03,9.0,WeatherDisplay:10.37,2013-05-16 05:13:00,
2013-05-16 07:14:00,65.5,53.4,29.65,NNW,336,0.0,0.0,65,0.03,BKN,,0.03,9.0,WeatherDisplay:10.37,2013-05-16 05:14:00,
2013-05-16 07:15:00,65.5,53.4,29.65,NNW,336,0.0,0.0,65,0.03,BKN,,0.03,9.0,WeatherDisplay:10.37,2013-05-16 05:15:00,
2013-05-16 07:17:00,65.5,53.4,29.65,NNW,336,0.0,0.0,65,0.03,BKN,,0.03,9.0,WeatherDisplay:10.37,2013-05-16 05:17:00,
2013-05-16 07:18:00,65.5,53.4,29.65,NNW,336,0.0,0.0,65,0.03,BKN,,0.03,9.0,WeatherDisplay:10.37,2013-05-16 05:18:00,
2013-05-16 07:19:00,65.5,53.4,29.65,NNW,336,0.0,0.0,65,0.03,BKN,,0.03,9.0,WeatherDisplay:10.37,2013-05-16 05:19:00,
2013-05-16 07:20:00,65.5,53.4,29.65,NNW,336,0.0,0.0,65,0.03,OVC,,0.03,9.0,WeatherDisplay:10.37,2013-05-16 05:20:00,
2013-05-16 07:22:00,65.5,53.4,29.65,NNW,336,0.0,0.0,65,0.03,OVC,,0.03,9.0,WeatherDisplay:10.37,2013-05-16 05:22:00,
2013-05-16 07:24:00,65.5,53.4,29.65,NNW,336,0.0,0.0,65,0.03,OVC,,0.03,9.0,WeatherDisplay:10.37,2013-05-16 05:24:00,
2013-05-16 07:25:00,65.5,53.4,29.65,NNW,336,0.0,0.0,65,0.03,OVC,,0.03,9.0,WeatherDisplay:10.37,2013-05-16 05:25:00,
2013-05-16 07:27:00,65.5,53.4,29.65,NNW,336,0.0,0.0,65,0.03,OVC,,0.03,9.0,WeatherDisplay:10.37,2013-05-16 05:27:00,
2013-05-16 07:29:00,65.5,53.4,29.65,NNW,336,0.0,0.0,65,0.03,OVC,,0.03,9.0,WeatherDisplay:10.37,2013-05-16 05:29:00,
2013-05-16 07:30:00,65.5,53.4,29.65,NNW,336,0.0,0.0,65,0.03,OVC,,0.03,9.0,WeatherDisplay:10.37,2013-05-16 05:30:00,
2013-05-16 07:31:00,65.5,53.4,29.65,NNW,336,0.0,0.0,65,0.03,OVC,,0.03,9.0,WeatherDisplay:10.37,2013-05-16 05:31:00,
2013-05-16 07:33:00,65.5,53.4,29.65,NNW,336,0.0,0.0,65,0.03,OVC,,0.03,9.0,WeatherDisplay:10.37,2013-05-16 05:33:00,
2013-05-16 07:34:00,65.5,53.4,29.65,NNW,336,0.0,0.0,65,0.03,OVC,,0.03,9.0,WeatherDisplay:10.37,2013-05-16 05:34:00,
2013-05-16 07:35:00,65.5,53.4,29.65,NNW,336,0.0,0.0,65,0.03,OVC,,0.03,9.0,WeatherDisplay:10.37,2013-05-16 05:35:00,
2013-05-16 07:36:00,65.5,53.4,29.65,NNW,336,0.0,0.0,65,0.03,OVC,,0.03,9.0,WeatherDisplay:10.37,2013-05-16 05:36:00,
2013-05-16 07:38:00,65.5,53.4,29.65,NNW,336,0.0,0.0,65,0.03,OVC,,0.03,9.0,WeatherDisplay:10.37,2013-05-16 05:38:00,
2013-05-16 07:39:00,65.5,53.4,29.65,NNW,336,0.0,0.0,65,0.03,OVC,,0.03,9.0,WeatherDisplay:10.37,2013-05-16 05:39:00,
2013-05-16 07:40:00,65.5,53.4,29.65,NNW,336,0.0,0.0,65,0.03,OVC,,0.03,9.0,WeatherDisplay:10.37,2013-05-16 05:40:00,
2013-05-16 07:41:00,65.5,53.4,29.65,NNW,336,0.0,0.0,65,0.02,OVC,,0.03,9.0,WeatherDisplay:10.37,2013-05-16 05:41:00,
2013-05-16 07:44:00,65.5,53.4,29.65,NNW,336,0.0,0.0,65,0.02,OVC,,0.03,9.0,WeatherDisplay:10.37,2013-05-16 05:44:00,
2013-05-16 07:45:00,65.5,53.4,29.65,NNW,336,0.0,0.0,65,0.02,OVC,,0.03,9.0,WeatherDisplay:10.37,2013-05-16 05:45:00,
2013-05-16 07:47:00,65.5,53.4,29.65,NNW,336,0.0,0.0,65,0.02,OVC,,0.03,9.0,WeatherDisplay:10.37,2013-05-16 05:47:00,
2013-05-16 07:49:00,65.5,53.4,29.65,NNW,336,0.0,0.0,65,0.01,OVC,,0.03,9.0,WeatherDisplay:10.37,2013-05-16 05:49:00,
2013-05-16 07:50:00,65.5,53.4,29.65,NNW,336,0.0,0.0,65,0.01,OVC,,0.03,9.0,WeatherDisplay:10.37,2013-05-16 05:50:00,
2013-05-16 07:52:00,65.5,53.4,29.65,NNW,336,0.0,0.0,65,0.01,OVC,,0.03,9.0,WeatherDisplay:10.37,2013-05-16 05:52:00,
2013-05-16 07:54:00,65.5,53.4,29.65,NNW,336,0.0,0.0,65,0.00,OVC,,0.03,9.0,WeatherDisplay:10.37,2013-05-16 05:54:00,
2013-05-16 07:55:00,65.5,53.4,29.65,NNW,336,0.0,0.0,65,0.00,OVC,,0.03,9.0,WeatherDisplay:10.37,2013-05-16 05:55:00,
2013-05-16 07:56:00,65.5,53.4,29.65,NNW,336,0.0,0.0,65,0.00,OVC,,0.03,9.0,WeatherDisplay:10.37,2013-05-16 05:56:00,
2013-05-16 07:57:00,65.5,53.4,29.65,NNW,336,0.0,0.0,65,0.00,OVC,,0.03,9.0,WeatherDisplay:10.37,2013-05-16 05:57:00,
2013-05-16 07:59:00,65.5,53.4,29.65,NNW,336,0.0,0.0,65,0.00,OVC,,0.03,9.0,WeatherDisplay:10.37,2013-05-16 05:59:00,
2013-05-16 08:00:00,65.5,53.4,29.65,NNW,336,0.0,0.0,65,0.00,OVC,,0.03,9.0,WeatherDisplay:10.37,2013-05-16 06:00:00,
2013-05-16 08:01:00,65.5,53.4,29.65,NNW,336,0.0,0.0,65,0.00,OVC,,0.03,9.0,WeatherDisplay:10.37,2013-05-16 06:01:00,
2013-05-16 08:02:00,65.5,53.4,29.65,NNW,336,0.0,0.0,65,0.00,OVC,,0.03,9.0,WeatherDisplay:10.37,2013-05-16 06:02:00,
2013-05-16 08:04:00,65.5,53.4,29.65,NNW,336,0.0,0.0,65,0.00,OVC,,0.03,9.0,WeatherDisplay:10.37,2013-05-16 06:04:00,
2013-05-16 08:05:00,65.5,53.4,29.65,NNW,336,0.0,0.0,65,0.00,OVC,,0.03,9.0,WeatherDisplay:10.37,2013-05-16 06:05:00,
2013-05-16 08:06:00,65.5,53.4,29.65,NNW,336,0.0,0.0,65,0.00,OVC,,0.03,9.0,WeatherDisplay:10.37,2013-05-16 06:06:00,
2013-05-16 08:07:00,65.5,53.4,29.65,NNW,336,0.0,0.0,65,0.00,OVC,,0.03,9.0,WeatherDisplay:10.37,2013-05-16 06:07:00,
2013-05-16 08:09:00,65.5,53.4,29.65,NNW,336,0.0,0.0,65,0.00,OVC,,0.03,9.0,WeatherDisplay:10.37,2013-05-16 06:09:00,
2013-05-16 08:10:00,65.5,53.4,29.65,NNW,336,0.0,0.0,65,0.00,OVC,,0.03,9.0,WeatherDisplay:10.37,2013-05-16 06:10:00,
2013-05-16 08:11:00,65.5,53.4,29.65,NNW,336,0.0,0.0,65,0.00,OVC,,0.03,9.0,WeatherDisplay:10.37,2013-05-16 06:11:00,
2013-05-16 08:12:00,65.5,53.4,29.65,NNW,336,0.0,0.0,65,0.00,OVC,,0.03,9.0,WeatherDisplay:10.37,2013-05-16 06:12:00,
2013-05-16 08:14:00,65.5,53.4,29.65,NNW,336,0.0,0.0,65,0.00,OVC,,0.03,9.0,WeatherDisplay:10.37,2013-05-16 06:14:00,
2013-05-16 08:15:00,65.5,53.4,29.65,NNW,336,0.0,0.0,65,0.00,OVC,,0.03,9.0,WeatherDisplay:10.37,2013-05-16 06:15:00,
2013-05-16 08:16:00,65.5,53.4,29.65,NNW,336,0.0,0.0,65,0.00,OVC,,0.03,9.0,WeatherDisplay:10.37,2013-05-16 06:16:00,
2013-05-16 08:17:00,65.5,53.4,29.65,NNW,336,0.0,0.0,65,0.00,OVC,,0.03,9.0,WeatherDisplay:10.37,2013-05-16 06:17:00,
2013-05-16 08:20:00,65.5,53.4,29.65,NNW,336,0.0,0.0,65,0.00,OVC,,0.03,9.0,WeatherDisplay:10.37,2013-05-16 06:20:00,
2013-05-16 08:21:00,65.5,53.4,29.65,NNW,336,0.0,0.0,65,0.00,OVC,,0.03,9.0,WeatherDisplay:10.37,2013-05-16 06:21:00,
2013-05-16 08:22:00,65.5,53.4,29.65,NNW,336,0.0,0.0,65,0.00,OVC,,0.03,9.0,WeatherDisplay:10.37,2013-05-16 06:22:00,
2013-05-16 08:25:00,65.5,53.4,29.65,NNW,336,0.0,0.0,65,0.00,OVC,,0.03,9.0,WeatherDisplay:10.37,2013-05-16 06:25:00,
2013-05-16 08:26:00,65.5,53.4,29.65,NNW,336,0.0,0.0,65,0.00,OVC,,0.03,9.0,WeatherDisplay:10.37,2013-05-16 06:26:00,
2013-05-16 08:27:00,65.5,53.4,29.65,NNW,336,0.0,0.0,65,0.00,OVC,,0.03,9.0,WeatherDisplay:10.37,2013-05-16 06:27:00,
2013-05-16 08:30:00,65.5,53.4,29.65,NNW,336,0.0,0.0,65,0.00,OVC,,0.03,9.0,WeatherDisplay:10.37,2013-05-16 06:30:00,
2013-05-16 08:32:00,65.5,53.4,29.65,NNW,336,0.0,0.0,65,0.00,OVC,,0.03,9.0,WeatherDisplay:10.37,2013-05-16 06:32:00,
2013-05-16 08:33:00,65.5,53.4,29.65,NNW,336,0.0,0.0,65,0.00,OVC,,0.03,9.0,WeatherDisplay:10.37,2013-05-16 06:33:00,
2013-05-16 08:35:00,65.5,53.4,29.65,NNW,336,0.0,0.0,65,0.00,OVC,,0.03,9.0,WeatherDisplay:10.37,2013-05-16 06:35:00,
2013-05-16 08:36:00,65.5,53.4,29.65,NNW,336,0.0,0.0,65,0.00,OVC,,0.03,9.0,WeatherDisplay:10.37,2013-05-16 06:36:00,
2013-05-16 08:37:00,65.5,53.4,29.65,NNW,336,0.0,0.0,65,0.00,OVC,,0.03,9.0,WeatherDisplay:10.37,2013-05-16 06:37:00,
2013-05-16 08:38:00,65.5,53.4,29.65,NNW,336,0.0,0.0,65,0.00,OVC,,0.03,9.0,WeatherDisplay:10.37,2013-05-16 06:38:00,
2013-05-16 08:41:00,65.5,53.4,29.65,NNW,336,0.0,0.0,65,0.00,OVC,,0.03,9.0,WeatherDisplay:10.37,2013-05-16 06:41:00,
2013-05-16 08:42:00,65.5,53.4,29.65,NNW,336,0.0,0.0,65,0.00,OVC,,0.03,9.0,WeatherDisplay:10.37,2013-05-16 06:42:00,
2013-05-16 08:43:00,65.5,53.4,29.65,NNW,336,0.0,0.0,65,0.00,OVC,,0.03,9.0,WeatherDisplay:10.37,2013-05-16 06:43:00,
2013-05-16 08:46:00,65.5,53.4,29.65,NNW,336,0.0,0.0,65,0.00,OVC,,0.03,9.0,WeatherDisplay:10.37,2013-05-16 06:46:00,
2013-05-16 08:47:00,65.5,53.4,29.65,NNW,336,0.0,0.0,65,0.00,OVC,,0.03,9.0,WeatherDisplay:10.37,2013-05-16 06:47:00,
2013-05-16 08:48:00,65.5,53.4,29.65,NNW,336,0.0,0.0,65,0.00,OVC,,0.03,9.0,WeatherDisplay:10.37,2013-05-16 06:48:00,
2013-05-16 08:51:00,65.5,53.4,29.65,NNW,336,0.0,0.0,65,0.00,OVC,,0.03,9.0,WeatherDisplay:10.37,2013-05-16 06:51:00,
2013-05-16 08:52:00,65.5,53.4,29.65,NNW,336,0.0,0.0,65,0.00,OVC,,0.03,9.0,WeatherDisplay:10.37,2013-05-16 06:52:00,
2013-05-16 08:54:00,65.5,53.4,29.65,NNW,336,0.0,0.0,65,0.00,OVC,,0.03,9.0,WeatherDisplay:10.37,2013-05-16 06:54:00,
2013-05-16 08:56:00,65.5,53.4,29.65,NNW,336,0.0,0.0,65,0.00,OVC,,0.03,9.0,WeatherDisplay:10.37,2013-05-16 06:56:00,
2013-05-16 08:57:00,65.5,53.4,29.65,NNW,336,0.0,0.0,65,0.00,OVC,,0.03,9.0,WeatherDisplay:10.37,2013-05-16 06:57:00,
2013-05-16 08:58:00,65.5,53.4,29.65,NNW,336,0.0,0.0,65,0.00,OVC,,0.03,9.0,WeatherDisplay:10.37,2013-05-16 06:58:00,
2013-05-16 08:59:00,65.5,53.4,29.65,NNW,336,0.0,0.0,65,0.00,OVC,,0.03,9.0,WeatherDisplay:10.37,2013-05-16 06:59:00,
2013-05-16 09:01:00,65.5,53.4,29.65,NNW,336,0.0,0.0,65,0.00,OVC,,0.03,9.0,WeatherDisplay:10.37,2013-05-16 07:01:00,
2013-05-16 09:02:00,65.5,53.4,29.65,NNW,336,0.0,0.0,65,0.00,OVC,,0.03,9.0,WeatherDisplay:10.37,2013-05-16 07:02:00,
2013-05-16 09:03:00,65.5,53.4,29.65,NNW,336,0.0,0.0,65,0.00,OVC,,0.03,9.0,WeatherDisplay:10.37,2013-05-16 07:03:00,
2013-05-16 09:04:00,65.5,53.4,29.65,NNW,336,0.0,0.0,65,0.00,OVC,,0.03,9.0,WeatherDisplay:10.37,2013-05-16 07:04:00,
2013-05-16 09:07:00,65.5,53.4,29.65,NNW,336,0.0,0.0,65,0.00,OVC,,0.03,9.0,WeatherDisplay:10.37,2013-05-16 07:07:00,
2013-05-16 09:08:00,65.5,53.4,29.65,NNW,336,0.0,0.0,65,0.00,OVC,,0.03,9.0,WeatherDisplay:10.37,2013-05-16 07:08:00,
2013-05-16 09:09:00,65.5,53.4,29.65,NNW,336,0.0,0.0,65,0.00,OVC,,0.03,9.0,WeatherDisplay:10.37,2013-05-16 07:09:00,
2013-05-16 09:12:00,65.5,53.4,29.65,NNW,336,0.0,0.0,65,0.00,OVC,,0.03,9.0,WeatherDisplay:10.37,2013-05-16 07:12:00,
2013-05-16 09:13:00,65.5,53.4,29.65,NNW,336,0.0,0.0,65,0.00,OVC,,0.03,9.0,WeatherDisplay:10.37,2013-05-16 07:13:00,
2013-05-16 09:14:00,65.5,53.4,29.65,NNW,336,0.0,0.0,65,0.00,OVC,,0.03,9.0,WeatherDisplay:10.37,2013-05-16 07:14:00,
2013-05-16 09:17:00,65.5,53.4,29.65,NNW,336,0.0,0.0,65,0.00,OVC,,0.03,9.0,WeatherDisplay:10.37,2013-05-16 07:17:00,
2013-05-16 09:18:00,65.5,53.4,29.65,NNW,336,0.0,0.0,65,0.00,OVC,,0.03,9.0,WeatherDisplay:10.37,2013-05-16 07:18:00,
2013-05-16 09:19:00,65.5,53.4,29.65,NNW,336,0.0,0.0,65,0.00,OVC,,0.03,9.0,WeatherDisplay:10.37,2013-05-16 07:19:00,
2013-05-16 09:20:00,65.5,53.4,29.65,NNW,336,0.0,0.0,65,0.00,OVC,,0.03,9.0,WeatherDisplay:10.37,2013-05-16 07:20:00,
2013-05-16 09:22:00,65.5,53.4,29.65,NNW,336,0.0,0.0,65,0.00,OVC,,0.03,9.0,WeatherDisplay:10.37,2013-05-16 07:22:00,
2013-05-16 09:23:00,65.5,53.4,29.65,NNW,336,0.0,0.0,65,0.00,OVC,,0.03,9.0,WeatherDisplay:10.37,2013-05-16 07:23:00,
2013-05-16 09:24:00,65.5,53.4,29.65,NNW,336,0.0,0.0,65,0.00,OVC,,0.03,9.0,WeatherDisplay:10.37,2013-05-16 07:24:00,
2013-05-16 09:27:00,65.5,53.4,29.65,NNW,336,0.0,0.0,65,0.00,OVC,,0.03,9.0,WeatherDisplay:10.37,2013-05-16 07:27:00,
2013-05-16 09:28:00,65.5,53.4,29.65,NNW,336,0.0,0.0,65,0.00,OVC,,0.03,9.0,WeatherDisplay:10.37,2013-05-16 07:28:00,
2013-05-16 09:29:00,65.5,53.4,29.65,NNW,336,0.0,0.0,65,0.00,OVC,,0.03,9.0,WeatherDisplay:10.37,2013-05-16 07:29:00,
2013-05-16 09:30:00,65.5,53.4,29.65,NNW,336,0.0,0.0,65,0.00,OVC,,0.03,9.0,WeatherDisplay:10.37,2013-05-16 07:30:00,
2013-05-16 10:05:00,67.0,57.3,29.61,East,94,0.0,0.0,71,0.03,RA,,0.06,239.0,WeatherDisplay:10.37,2013-05-16 08:05:00,
2013-05-16 10:06:00,67.0,57.3,29.61,East,97,0.0,0.0,71,0.03,RA,,0.06,278.0,WeatherDisplay:10.37,2013-05-16 08:06:00,
2013-05-16 10:10:00,67.6,57.9,29.62,SSE,157,0.0,0.0,71,0.03,RA,,0.06,336.0,WeatherDisplay:10.37,2013-05-16 08:10:00,
2013-05-16 10:11:00,67.6,57.9,29.62,SSE,157,0.0,0.0,71,0.03,RA,,0.06,336.0,WeatherDisplay:10.37,2013-05-16 08:11:00,
2013-05-16 10:15:00,68.1,57.1,29.63,SE,143,0.0,0.0,68,0.03,FEW,,0.06,169.0,WeatherDisplay:10.37,2013-05-16 08:15:00,
2013-05-16 10:16:00,68.1,57.1,29.63,SE,144,0.0,0.0,68,0.03,FEW,,0.06,169.0,WeatherDisplay:10.37,2013-05-16 08:16:00,
2013-05-16 10:20:00,68.3,56.5,29.64,SSE,150,0.0,0.0,66,0.03,FEW,,0.06,237.0,WeatherDisplay:10.37,2013-05-16 08:20:00,
2013-05-16 10:21:00,68.3,56.5,29.64,SSE,148,0.0,0.0,66,0.03,FEW,,0.06,237.0,WeatherDisplay:10.37,2013-05-16 08:21:00,
2013-05-16 10:22:00,68.3,56.1,29.64,South,178,0.0,0.0,65,0.03,FEW,,0.06,237.0,WeatherDisplay:10.37,2013-05-16 08:22:00,
2013-05-16 10:26:00,68.5,56.3,29.64,SE,132,0.0,0.0,65,0.03,FEW,,0.06,246.0,WeatherDisplay:10.37,2013-05-16 08:26:00,
2013-05-16 10:27:00,68.5,56.3,29.64,SSE,147,0.0,0.0,65,0.03,FEW,,0.06,246.0,WeatherDisplay:10.37,2013-05-16 08:27:00,
2013-05-16 10:31:00,68.5,56.3,29.64,SSE,164,0.0,0.0,65,0.03,FEW,,0.06,237.0,WeatherDisplay:10.37,2013-05-16 08:31:00,
2013-05-16 10:32:00,68.5,56.3,29.64,SSE,164,0.0,0.0,65,0.03,FEW,,0.06,237.0,WeatherDisplay:10.37,2013-05-16 08:32:00,
2013-05-16 10:36:00,68.5,56.7,29.64,SSE,159,0.0,0.0,66,0.03,FEW,,0.06,220.0,WeatherDisplay:10.37,2013-05-16 08:36:00,
2013-05-16 10:37:00,68.5,56.7,29.64,SSE,155,0.0,0.0,66,0.03,FEW,,0.06,220.0,WeatherDisplay:10.37,2013-05-16 08:37:00,
2013-05-16 10:41:00,68.6,56.8,29.64,SE,144,0.0,0.0,66,0.03,FEW,,0.06,188.0,WeatherDisplay:10.37,2013-05-16 08:41:00,
2013-05-16 10:42:00,68.6,56.8,29.64,SSE,148,0.0,0.0,66,0.03,SCT,,0.06,188.0,WeatherDisplay:10.37,2013-05-16 08:42:00,
2013-05-16 10:47:00,68.7,57.3,29.65,SSE,151,0.0,0.0,67,0.03,SCT,,0.06,230.0,WeatherDisplay:10.37,2013-05-16 08:47:00,
2013-05-16 10:48:00,68.7,57.3,29.64,SSE,154,0.0,0.0,67,0.03,SCT,,0.06,250.0,WeatherDisplay:10.37,2013-05-16 08:48:00,
2013-05-16 10:52:00,68.7,57.3,29.64,SSE,163,0.0,0.0,67,0.03,FEW,,0.06,343.0,WeatherDisplay:10.37,2013-05-16 08:52:00,
2013-05-16 10:53:00,68.7,57.3,29.64,SE,141,0.0,0.0,67,0.03,FEW,,0.06,343.0,WeatherDisplay:10.37,2013-05-16 08:53:00,
2013-05-16 10:57:00,68.9,57.5,29.64,SSE,165,0.0,0.0,67,0.03,FEW,,0.06,283.0,WeatherDisplay:10.37,2013-05-16 08:57:00,
2013-05-16 10:58:00,69.0,57.6,29.64,SSE,161,0.0,0.0,67,0.03,FEW,,0.06,306.0,WeatherDisplay:10.37,2013-05-16 08:58:00,
2013-05-16 10:59:00,69.1,57.7,29.64,SSE,165,0.0,0.0,67,0.03,FEW,,0.06,339.0,WeatherDisplay:10.37,2013-05-16 08:59:00,
2013-05-16 11:02:00,69.4,58.0,29.64,SSE,156,0.0,0.0,67,0.03,FEW,,0.06,332.0,WeatherDisplay:10.37,2013-05-16 09:02:00,
2013-05-16 11:03:00,69.4,57.5,29.64,SSE,156,0.0,0.0,66,0.03,FEW,,0.06,313.0,WeatherDisplay:10.37,2013-05-16 09:03:00,
2013-05-16 11:05:00,69.7,57.8,29.64,SE,130,0.0,0.0,66,0.00,FEW,,0.06,306.0,WeatherDisplay:10.37,2013-05-16 09:05:00,
2013-05-16 11:07:00,69.9,58.0,29.63,SE,134,0.0,0.0,66,0.00,FEW,,0.06,329.0,WeatherDisplay:10.37,2013-05-16 09:07:00,
2013-05-16 11:08:00,70.0,58.1,29.63,SE,134,0.0,0.0,66,0.00,FEW,,0.06,329.0,WeatherDisplay:10.37,2013-05-16 09:08:00,
2013-05-16 11:10:00,70.2,57.9,29.63,SE,134,0.0,0.0,65,0.00,FEW,,0.06,329.0,WeatherDisplay:10.37,2013-05-16 09:10:00,
2013-05-16 11:12:00,70.8,58.4,29.63,ESE,104,0.0,0.0,65,0.00,FEW,,0.06,835.0,WeatherDisplay:10.37,2013-05-16 09:12:00,
2013-05-16 11:13:00,70.8,58.4,29.63,ESE,104,0.0,0.0,65,0.00,FEW,,0.06,835.0,WeatherDisplay:10.37,2013-05-16 09:13:00,
2013-05-16 11:14:00,71.2,58.4,29.63,SE,126,0.0,0.0,64,0.00,FEW,,0.06,835.0,WeatherDisplay:10.37,2013-05-16 09:14:00,
2013-05-16 11:15:00,71.3,58.5,29.63,SE,141,0.0,0.0,64,0.00,FEW,,0.06,835.0,WeatherDisplay:10.37,2013-05-16 09:15:00,
2013-05-16 11:18:00,71.5,58.2,29.63,SSE,147,0.0,0.0,63,0.00,FEW,,0.06,445.0,WeatherDisplay:10.37,2013-05-16 09:18:00,
2013-05-16 11:19:00,71.5,57.8,29.63,SE,146,0.0,0.0,62,0.00,FEW,,0.06,445.0,WeatherDisplay:10.37,2013-05-16 09:19:00,
2013-05-16 11:21:00,71.7,57.5,29.63,East,101,0.0,0.0,61,0.00,FEW,,0.06,519.0,WeatherDisplay:10.37,2013-05-16 09:21:00,
2013-05-16 11:23:00,71.8,57.6,29.63,East,98,0.0,0.0,61,0.00,FEW,,0.06,519.0,WeatherDisplay:10.37,2013-05-16 09:23:00,
2013-05-16 11:24:00,72.0,57.8,29.63,SE,130,0.0,0.0,61,0.00,FEW,,0.06,519.0,WeatherDisplay:10.37,2013-05-16 09:24:00,
2013-05-16 11:26:00,72.0,57.4,29.63,SE,140,0.0,0.0,60,0.00,FEW,,0.06,283.0,WeatherDisplay:10.37,2013-05-16 09:26:00,
2013-05-16 11:28:00,72.0,57.4,29.63,SE,140,0.0,0.0,60,0.00,FEW,,0.06,272.0,WeatherDisplay:10.37,2013-05-16 09:28:00,
2013-05-16 11:29:00,72.0,57.4,29.63,SE,140,0.0,0.0,60,0.00,FEW,,0.06,265.0,WeatherDisplay:10.37,2013-05-16 09:29:00,
2013-05-16 11:31:00,72.0,57.4,29.63,SE,140,0.0,0.0,60,0.00,FEW,,0.06,236.0,WeatherDisplay:10.37,2013-05-16 09:31:00,
2013-05-16 11:33:00,72.0,57.4,29.63,SE,140,0.0,0.0,60,0.00,FEW,,0.06,253.0,WeatherDisplay:10.37,2013-05-16 09:33:00,
2013-05-16 11:34:00,72.0,57.4,29.63,SE,140,0.0,0.0,60,0.00,FEW,,0.06,281.0,WeatherDisplay:10.37,2013-05-16 09:34:00,
2013-05-16 11:35:00,72.1,57.4,29.62,SE,140,0.0,0.0,60,0.00,FEW,,0.06,281.0,WeatherDisplay:10.37,2013-05-16 09:35:00,
2013-05-16 11:37:00,72.1,57.4,29.62,SE,140,0.0,0.0,60,0.00,FEW,,0.06,313.0,WeatherDisplay:10.37,2013-05-16 09:37:00,
2013-05-16 11:38:00,72.2,57.5,29.62,SE,139,0.0,0.0,60,0.00,FEW,,0.06,327.0,WeatherDisplay:10.37,2013-05-16 09:38:00,
2013-05-16 11:39:00,72.2,57.5,29.62,SE,139,0.0,0.0,60,0.00,FEW,,0.06,322.0,WeatherDisplay:10.37,2013-05-16 09:39:00,
2013-05-16 11:40:00,72.3,57.6,29.62,SE,140,0.0,0.0,60,0.00,FEW,,0.06,322.0,WeatherDisplay:10.37,2013-05-16 09:40:00,
2013-05-16 11:42:00,72.5,57.8,29.62,SE,140,0.0,0.0,60,0.00,FEW,,0.06,322.0,WeatherDisplay:10.37,2013-05-16 09:42:00,
2013-05-16 11:43:00,72.7,58.0,29.62,ENE,68,0.0,0.0,60,0.00,FEW,,0.06,353.0,WeatherDisplay:10.37,2013-05-16 09:43:00,
2013-05-16 11:44:00,72.6,57.9,29.62,NE,46,0.0,0.0,60,0.00,FEW,,0.06,353.0,WeatherDisplay:10.37,2013-05-16 09:44:00,
2013-05-16 11:45:00,72.6,57.9,29.62,ENE,59,0.0,0.0,60,0.00,FEW,,0.06,468.0,WeatherDisplay:10.37,2013-05-16 09:45:00,
2013-05-16 11:47:00,72.5,57.8,29.62,ENE,59,0.0,0.0,60,0.00,FEW,,0.06,468.0,WeatherDisplay:10.37,2013-05-16 09:47:00,
2013-05-16 11:49:00,72.4,57.7,29.62,NE,54,0.0,0.0,60,0.00,FEW,,0.06,501.0,WeatherDisplay:10.37,2013-05-16 09:49:00,
2013-05-16 11:50:00,72.4,57.7,29.62,NE,54,0.0,0.0,60,0.00,FEW,,0.06,501.0,WeatherDisplay:10.37,2013-05-16 09:50:00,
2013-05-16 11:51:00,72.3,57.6,29.62,NE,54,0.0,0.0,60,0.00,FEW,,0.06,657.0,WeatherDisplay:10.37,2013-05-16 09:51:00,
2013-05-16 11:52:00,72.2,57.1,29.62,NE,54,0.0,0.0,59,0.00,FEW,,0.06,657.0,WeatherDisplay:10.37,2013-05-16 09:52:00,
2013-05-16 11:54:00,72.2,57.5,29.62,NE,55,0.0,0.0,60,0.00,FEW,,0.06,608.0,WeatherDisplay:10.37,2013-05-16 09:54:00,
2013-05-16 11:55:00,72.2,57.5,29.62,NE,56,0.0,0.0,60,0.00,FEW,,0.06,608.0,WeatherDisplay:10.37,2013-05-16 09:55:00,
2013-05-16 11:56:00,72.3,57.6,29.62,NE,56,0.0,0.0,60,0.00,FEW,,0.06,608.0,WeatherDisplay:10.37,2013-05-16 09:56:00,
2013-05-16 11:57:00,72.3,57.6,29.62,NE,56,0.0,0.0,60,0.00,FEW,,0.06,471.0,WeatherDisplay:10.37,2013-05-16 09:57:00,
2013-05-16 11:59:00,72.4,57.3,29.62,ENE,58,0.0,0.0,59,0.00,FEW,,0.06,434.0,WeatherDisplay:10.37,2013-05-16 09:59:00,
2013-05-16 12:00:00,72.4,57.7,29.62,ENE,61,0.0,0.0,60,0.00,FEW,,0.06,434.0,WeatherDisplay:10.37,2013-05-16 10:00:00,
2013-05-16 12:01:00,72.4,57.7,29.62,ENE,75,0.0,0.0,60,0.00,FEW,,0.06,455.0,WeatherDisplay:10.37,2013-05-16 10:01:00,
2013-05-16 12:02:00,72.5,57.8,29.62,ENE,76,0.0,0.0,60,0.00,FEW,,0.06,404.0,WeatherDisplay:10.37,2013-05-16 10:02:00,
2013-05-16 12:04:00,72.7,58.0,29.61,ENE,76,0.0,0.0,60,0.00,FEW,,0.06,388.0,WeatherDisplay:10.37,2013-05-16 10:04:00,
2013-05-16 12:05:00,72.7,58.0,29.61,ENE,76,0.0,0.0,60,0.00,FEW,,0.06,388.0,WeatherDisplay:10.37,2013-05-16 10:05:00,
2013-05-16 12:06:00,72.9,57.7,29.61,ENE,76,0.0,0.0,59,0.00,FEW,,0.06,359.0,WeatherDisplay:10.37,2013-05-16 10:06:00,
2013-05-16 12:07:00,73.0,57.8,29.61,ENE,73,0.0,0.0,59,0.00,FEW,,0.06,369.0,WeatherDisplay:10.37,2013-05-16 10:07:00,
2013-05-16 12:09:00,73.5,58.3,29.61,ENE,76,0.0,0.0,59,0.00,FEW,,0.06,401.0,WeatherDisplay:10.37,2013-05-16 10:09:00,
2013-05-16 12:10:00,73.5,58.3,29.61,ENE,76,0.0,0.0,59,0.00,FEW,,0.06,401.0,WeatherDisplay:10.37,2013-05-16 10:10:00,
2013-05-16 12:11:00,73.6,57.9,29.61,ENE,76,0.0,0.0,58,0.00,FEW,,0.06,396.0,WeatherDisplay:10.37,2013-05-16 10:11:00,
2013-05-16 12:12:00,73.6,57.9,29.61,ENE,73,0.0,0.0,58,0.00,FEW,,0.06,374.0,WeatherDisplay:10.37,2013-05-16 10:12:00,
2013-05-16 12:14:00,73.7,58.0,29.61,ENE,76,0.0,0.0,58,0.00,FEW,,0.06,374.0,WeatherDisplay:10.37,2013-05-16 10:14:00,
2013-05-16 12:15:00,73.7,58.0,29.61,ENE,76,0.0,0.0,58,0.00,FEW,,0.06,322.0,WeatherDisplay:10.37,2013-05-16 10:15:00,
2013-05-16 12:16:00,73.9,58.2,29.61,ENE,76,0.0,0.0,58,0.00,FEW,,0.06,318.0,WeatherDisplay:10.37,2013-05-16 10:16:00,
2013-05-16 12:17:00,73.9,57.7,29.61,ENE,73,0.0,0.0,57,0.00,FEW,,0.06,318.0,WeatherDisplay:10.37,2013-05-16 10:17:00,
2013-05-16 12:19:00,73.8,57.6,29.61,ENE,76,0.0,0.0,57,0.00,FEW,,0.06,339.0,WeatherDisplay:10.37,2013-05-16 10:19:00,
2013-05-16 12:20:00,73.8,57.6,29.61,ENE,76,0.0,0.0,57,0.00,FEW,,0.06,339.0,WeatherDisplay:10.37,2013-05-16 10:20:00,
2013-05-16 12:21:00,73.7,57.5,29.61,ENE,76,0.0,0.0,57,0.00,FEW,,0.06,339.0,WeatherDisplay:10.37,2013-05-16 10:21:00,
2013-05-16 12:22:00,73.6,57.4,29.61,ENE,76,0.0,0.0,57,0.00,FEW,,0.06,339.0,WeatherDisplay:10.37,2013-05-16 10:22:00,
2013-05-16 12:25:00,73.7,58.0,29.61,ENE,76,0.0,0.0,58,0.00,FEW,,0.06,967.0,WeatherDisplay:10.37,2013-05-16 10:25:00,
2013-05-16 12:26:00,73.8,58.1,29.61,ENE,76,0.0,0.0,58,0.00,FEW,,0.06,967.0,WeatherDisplay:10.37,2013-05-16 10:26:00,
2013-05-16 12:27:00,73.8,58.1,29.61,ENE,76,0.0,0.0,58,0.00,FEW,,0.06,580.0,WeatherDisplay:10.37,2013-05-16 10:27:00,
2013-05-16 12:30:00,74.2,59.4,29.60,ENE,64,0.0,0.0,60,0.00,FEW,,0.06,387.0,WeatherDisplay:10.37,2013-05-16 10:30:00,
2013-05-16 12:31:00,74.1,58.9,29.60,ENE,71,0.0,0.0,59,0.00,FEW,,0.06,411.0,WeatherDisplay:10.37,2013-05-16 10:31:00,
2013-05-16 12:32:00,74.0,58.8,29.60,ENE,59,0.0,0.0,59,0.00,FEW,,0.06,427.0,WeatherDisplay:10.37,2013-05-16 10:32:00,
2013-05-16 12:33:00,74.0,58.8,29.60,ENE,59,0.0,0.0,59,0.00,FEW,,0.06,461.0,WeatherDisplay:10.37,2013-05-16 10:33:00,
2013-05-16 12:35:00,73.8,58.6,29.60,NE,56,0.0,0.0,59,0.00,FEW,,0.06,522.0,WeatherDisplay:10.37,2013-05-16 10:35:00,
2013-05-16 12:37:00,73.7,58.9,29.60,ENE,58,0.0,0.0,60,0.00,FEW,,0.06,464.0,WeatherDisplay:10.37,2013-05-16 10:37:00,
2013-05-16 12:38:00,73.6,58.9,29.60,ENE,58,0.0,0.0,60,0.00,FEW,,0.06,462.0,WeatherDisplay:10.37,2013-05-16 10:38:00,
2013-05-16 12:40:00,73.6,58.9,29.60,NE,44,0.0,0.0,60,0.00,FEW,,0.06,524.0,WeatherDisplay:10.37,2013-05-16 10:40:00,
2013-05-16 12:42:00,73.5,58.8,29.60,NE,44,0.0,0.0,60,0.00,FEW,,0.06,520.0,WeatherDisplay:10.37,2013-05-16 10:42:00,
2013-05-16 12:43:00,73.4,58.7,29.60,NE,44,0.0,0.0,60,0.00,FEW,,0.06,520.0,WeatherDisplay:10.37,2013-05-16 10:43:00,
2013-05-16 12:45:00,73.4,58.7,29.60,NE,44,0.0,0.0,60,0.00,FEW,,0.06,584.0,WeatherDisplay:10.37,2013-05-16 10:45:00,
2013-05-16 12:46:00,73.4,58.7,29.60,NE,44,0.0,0.0,60,0.00,FEW,,0.06,584.0,WeatherDisplay:10.37,2013-05-16 10:46:00,
2013-05-16 12:47:00,73.6,58.9,29.60,NE,44,0.0,0.0,60,0.00,FEW,,0.06,615.0,WeatherDisplay:10.37,2013-05-16 10:47:00,
2013-05-16 12:48:00,73.8,59.0,29.59,NE,44,0.0,0.0,60,0.00,FEW,,0.06,615.0,WeatherDisplay:10.37,2013-05-16 10:48:00,
2013-05-16 12:51:00,74.2,59.4,29.59,NNE,21,0.0,0.0,60,0.00,FEW,,0.06,875.0,WeatherDisplay:10.37,2013-05-16 10:51:00,
2013-05-16 12:52:00,74.5,60.2,29.58,North,355,0.0,0.0,61,0.00,FEW,,0.06,842.0,WeatherDisplay:10.37,2013-05-16 10:52:00,
2013-05-16 12:53:00,74.6,60.3,29.58,NNW,337,0.0,0.0,61,0.00,FEW,,0.06,842.0,WeatherDisplay:10.37,2013-05-16 10:53:00,
2013-05-16 12:56:00,74.6,59.3,29.58,NNE,28,0.0,0.0,59,0.00,FEW,,0.06,823.0,WeatherDisplay:10.37,2013-05-16 10:56:00,
2013-05-16 12:58:00,74.5,59.7,29.58,NNE,15,0.0,0.0,60,0.00,FEW,,0.06,821.0,WeatherDisplay:10.37,2013-05-16 10:58:00,
2013-05-16 13:01:00,74.1,58.9,29.58,NNE,25,0.0,0.0,59,0.00,FEW,,0.06,816.0,WeatherDisplay:10.37,2013-05-16 11:01:00,
2013-05-16 13:02:00,74.1,58.9,29.58,North,5,0.0,0.0,59,0.00,FEW,,0.06,816.0,WeatherDisplay:10.37,2013-05-16 11:02:00,
2013-05-16 13:03:00,74.1,59.3,29.58,NNE,12,0.0,0.0,60,0.00,FEW,,0.06,810.0,WeatherDisplay:10.37,2013-05-16 11:03:00,
2013-05-16 13:06:00,74.0,59.7,29.57,NNE,33,0.0,0.0,61,0.00,FEW,,0.06,823.0,WeatherDisplay:10.37,2013-05-16 11:06:00,
2013-05-16 13:07:00,74.0,59.7,29.57,NNE,33,0.0,0.0,61,0.00,FEW,,0.06,823.0,WeatherDisplay:10.37,2013-05-16 11:07:00,
2013-05-16 13:08:00,74.1,59.8,29.57,NNE,26,0.0,0.0,61,0.00,FEW,,0.06,823.0,WeatherDisplay:10.37,2013-05-16 11:08:00,
2013-05-16 13:11:00,74.2,59.9,29.57,North,5,0.0,0.0,61,0.00,FEW,,0.06,828.0,WeatherDisplay:10.37,2013-05-16 11:11:00,
2013-05-16 13:12:00,74.3,60.0,29.57,North,5,0.0,0.0,61,0.00,FEW,,0.06,821.0,WeatherDisplay:10.37,2013-05-16 11:12:00,
2013-05-16 13:13:00,74.3,60.0,29.57,NE,39,0.0,0.0,61,0.00,FEW,,0.06,824.0,WeatherDisplay:10.37,2013-05-16 11:13:00,
2013-05-16 13:17:00,74.7,59.4,29.57,NE,40,0.0,0.0,59,0.00,FEW,,0.06,821.0,WeatherDisplay:10.37,2013-05-16 11:17:00,
2013-05-16 13:18:00,74.7,59.4,29.57,NE,36,0.0,0.0,59,0.00,FEW,,0.06,823.0,WeatherDisplay:10.37,2013-05-16 11:18:00,
2013-05-16 13:19:00,74.8,59.5,29.57,NNE,19,0.0,0.0,59,0.00,FEW,,0.06,823.0,WeatherDisplay:10.37,2013-05-16 11:19:00,
2013-05-16 13:22:00,74.9,59.6,29.57,North,9,0.0,0.0,59,0.00,FEW,,0.06,840.0,WeatherDisplay:10.37,2013-05-16 11:22:00,
2013-05-16 13:23:00,74.9,59.6,29.57,NE,38,0.0,0.0,59,0.00,FEW,,0.06,840.0,WeatherDisplay:10.37,2013-05-16 11:23:00,
2013-05-16 13:24:00,75.0,59.7,29.57,NNE,17,0.0,0.0,59,0.00,FEW,,0.06,868.0,WeatherDisplay:10.37,2013-05-16 11:24:00,
2013-05-16 13:27:00,75.0,59.7,29.57,NE,41,0.0,0.0,59,0.00,FEW,,0.06,856.0,WeatherDisplay:10.37,2013-05-16 11:27:00,
2013-05-16 13:28:00,75.0,59.7,29.57,NNE,22,0.0,0.0,59,0.00,FEW,,0.06,856.0,WeatherDisplay:10.37,2013-05-16 11:28:00,
2013-05-16 13:29:00,75.1,59.8,29.57,NNE,28,0.0,0.0,59,0.00,FEW,,0.06,846.0,WeatherDisplay:10.37,2013-05-16 11:29:00,
2013-05-16 13:32:00,75.3,59.5,29.57,NE,38,0.0,0.0,58,0.00,FEW,,0.06,823.0,WeatherDisplay:10.37,2013-05-16 11:32:00,
2013-05-16 13:33:00,75.3,59.5,29.57,NE,54,0.0,0.0,58,0.00,FEW,,0.06,837.0,WeatherDisplay:10.37,2013-05-16 11:33:00,
2013-05-16 13:34:00,75.3,59.5,29.57,North,11,0.0,0.0,58,0.00,FEW,,0.06,837.0,WeatherDisplay:10.37,2013-05-16 11:34:00,
2013-05-16 13:37:00,75.5,59.7,29.56,NNE,23,0.0,0.0,58,0.00,FEW,,0.06,821.0,WeatherDisplay:10.37,2013-05-16 11:37:00,
2013-05-16 13:38:00,75.5,60.2,29.56,NNE,22,0.0,0.0,59,0.00,FEW,,0.06,821.0,WeatherDisplay:10.37,2013-05-16 11:38:00,
2013-05-16 13:39:00,75.5,59.7,29.56,NNE,14,0.0,0.0,58,0.00,FEW,,0.06,817.0,WeatherDisplay:10.37,2013-05-16 11:39:00,
2013-05-16 13:40:00,75.6,59.8,29.56,NNE,18,0.0,0.0,58,0.00,FEW,,0.06,817.0,WeatherDisplay:10.37,2013-05-16 11:40:00,
2013-05-16 13:43:00,75.7,60.4,29.56,NE,43,0.0,0.0,59,0.00,FEW,,0.06,821.0,WeatherDisplay:10.37,2013-05-16 11:43:00,
2013-05-16 13:44:00,75.7,60.4,29.56,NE,37,0.0,0.0,59,0.00,FEW,,0.06,812.0,WeatherDisplay:10.37,2013-05-16 11:44:00,
2013-05-16 13:45:00,75.8,60.4,29.56,NNE,12,0.0,0.0,59,0.00,FEW,,0.06,812.0,WeatherDisplay:10.37,2013-05-16 11:45:00,
2013-05-16 13:48:00,75.7,60.4,29.56,NE,44,0.0,0.0,59,0.00,FEW,,0.06,802.0,WeatherDisplay:10.37,2013-05-16 11:48:00,
2013-05-16 13:49:00,75.7,60.8,29.56,NNE,19,0.0,0.0,60,0.00,FEW,,0.06,802.0,WeatherDisplay:10.37,2013-05-16 11:49:00,
2013-05-16 13:50:00,75.8,60.4,29.56,North,5,0.0,0.0,59,0.00,FEW,,0.06,803.0,WeatherDisplay:10.37,2013-05-16 11:50:00,
2013-05-16 13:53:00,75.8,59.5,29.55,NNE,14,0.0,0.0,57,0.00,FEW,,0.06,803.0,WeatherDisplay:10.37,2013-05-16 11:53:00,
2013-05-16 13:54:00,75.7,59.4,29.55,NNE,30,0.0,0.0,57,0.00,FEW,,0.06,803.0,WeatherDisplay:10.37,2013-05-16 11:54:00,
2013-05-16 13:55:00,75.7,59.4,29.55,NNE,30,0.0,0.0,57,0.00,FEW,,0.06,803.0,WeatherDisplay:10.37,2013-05-16 11:55:00,
2013-05-16 13:58:00,75.9,60.1,29.55,North,11,0.0,0.0,58,0.00,FEW,,0.06,800.0,WeatherDisplay:10.37,2013-05-16 11:58:00,
2013-05-16 13:59:00,75.9,60.1,29.55,NNE,27,0.0,0.0,58,0.00,FEW,,0.06,802.0,WeatherDisplay:10.37,2013-05-16 11:59:00,
2013-05-16 14:00:00,75.9,59.6,29.55,NE,43,0.0,0.0,57,0.00,FEW,,0.06,796.0,WeatherDisplay:10.37,2013-05-16 12:00:00,
2013-05-16 14:03:00,76.3,59.4,29.55,ENE,64,0.0,0.0,56,0.00,FEW,,0.06,796.0,WeatherDisplay:10.37,2013-05-16 12:03:00,
2013-05-16 14:04:00,76.4,59.5,29.55,NE,53,0.0,0.0,56,0.00,FEW,,0.06,796.0,WeatherDisplay:10.37,2013-05-16 12:04:00,
2013-05-16 14:05:00,76.5,60.1,29.55,NNE,13,0.0,0.0,57,0.00,FEW,,0.06,793.0,WeatherDisplay:10.37,2013-05-16 12:05:00,
2013-05-16 14:08:00,77.2,60.8,29.55,NE,44,0.0,0.0,57,0.00,FEW,,0.06,789.0,WeatherDisplay:10.37,2013-05-16 12:08:00,
2013-05-16 14:09:00,77.4,61.0,29.55,NNE,17,0.0,0.0,57,0.00,FEW,,0.06,789.0,WeatherDisplay:10.37,2013-05-16 12:09:00,
2013-05-16 14:10:00,77.5,60.6,29.55,East,81,0.0,0.0,56,0.00,FEW,,0.06,789.0,WeatherDisplay:10.37,2013-05-16 12:10:00,
2013-05-16 14:13:00,77.4,60.0,29.54,NNE,32,0.0,0.0,55,0.00,FEW,,0.06,793.0,WeatherDisplay:10.37,2013-05-16 12:13:00,
2013-05-16 14:14:00,77.3,59.9,29.54,ENE,61,0.0,0.0,55,0.00,FEW,,0.06,800.0,WeatherDisplay:10.37,2013-05-16 12:14:00,
2013-05-16 14:15:00,77.3,59.9,29.54,ENE,59,0.0,0.0,55,0.00,FEW,,0.06,800.0,WeatherDisplay:10.37,2013-05-16 12:15:00,
2013-05-16 14:18:00,77.4,60.0,29.54,NNE,28,0.0,0.0,55,0.00,FEW,,0.06,788.0,WeatherDisplay:10.37,2013-05-16 12:18:00,
2013-05-16 14:19:00,77.4,60.0,29.54,NNE,15,0.0,0.0,55,0.00,FEW,,0.06,779.0,WeatherDisplay:10.37,2013-05-16 12:19:00,
2013-05-16 14:20:00,77.3,59.9,29.53,NNE,24,0.0,0.0,55,0.00,FEW,,0.06,779.0,WeatherDisplay:10.37,2013-05-16 12:20:00,
2013-05-16 14:21:00,77.3,59.9,29.53,NNE,20,0.0,0.0,55,0.00,FEW,,0.06,775.0,WeatherDisplay:10.37,2013-05-16 12:21:00,
2013-05-16 14:23:00,77.3,60.4,29.53,ENE,59,0.0,0.0,56,0.00,FEW,,0.06,777.0,WeatherDisplay:10.37,2013-05-16 12:23:00,
2013-05-16 14:25:00,77.3,60.4,29.53,NE,47,0.0,0.0,56,0.00,FEW,,0.06,773.0,WeatherDisplay:10.37,2013-05-16 12:25:00,
2013-05-16 14:26:00,77.3,60.4,29.53,NE,53,0.0,0.0,56,0.00,FEW,,0.06,763.0,WeatherDisplay:10.37,2013-05-16 12:26:00,
2013-05-16 14:30:00,77.2,59.8,29.53,NNE,24,0.0,0.0,55,0.00,FEW,,0.06,772.0,WeatherDisplay:10.37,2013-05-16 12:30:00,
2013-05-16 14:31:00,77.3,60.4,29.53,North,360,0.0,0.0,56,0.00,FEW,,0.06,772.0,WeatherDisplay:10.37,2013-05-16 12:31:00,
2013-05-16 14:35:00,77.5,60.1,29.53,North,10,0.0,0.0,55,0.00,FEW,,0.06,752.0,WeatherDisplay:10.37,2013-05-16 12:35:00,
2013-05-16 14:36:00,77.5,60.1,29.53,NNW,343,0.0,0.0,55,0.00,FEW,,0.06,744.0,WeatherDisplay:10.37,2013-05-16 12:36:00,
2013-05-16 14:40:00,77.8,60.3,29.53,NNE,30,0.0,0.0,55,0.00,FEW,,0.06,740.0,WeatherDisplay:10.37,2013-05-16 12:40:00,
2013-05-16 14:41:00,77.9,60.4,29.53,NNE,30,0.0,0.0,55,0.00,FEW,,0.06,735.0,WeatherDisplay:10.37,2013-05-16 12:41:00,
2013-05-16 14:42:00,77.9,60.4,29.53,ENE,58,0.0,0.0,55,0.00,FEW,,0.06,738.0,WeatherDisplay:10.37,2013-05-16 12:42:00,
2013-05-16 14:45:00,77.9,60.4,29.53,NE,36,0.0,0.0,55,0.00,FEW,,0.06,735.0,WeatherDisplay:10.37,2013-05-16 12:45:00,
2013-05-16 14:46:00,78.0,60.5,29.53,NE,35,0.0,0.0,55,0.00,FEW,,0.06,735.0,WeatherDisplay:10.37,2013-05-16 12:46:00,
2013-05-16 14:47:00,77.9,59.9,29.53,NE,39,0.0,0.0,54,0.00,FEW,,0.06,733.0,WeatherDisplay:10.37,2013-05-16 12:47:00,
2013-05-16 14:50:00,78.0,60.0,29.53,NE,55,0.0,0.0,54,0.00,FEW,,0.06,729.0,WeatherDisplay:10.37,2013-05-16 12:50:00,
2013-05-16 14:51:00,78.1,60.6,29.53,NE,54,0.0,0.0,55,0.00,FEW,,0.06,726.0,WeatherDisplay:10.37,2013-05-16 12:51:00,
2013-05-16 14:52:00,78.1,60.6,29.53,ENE,58,0.0,0.0,55,0.00,FEW,,0.06,728.0,WeatherDisplay:10.37,2013-05-16 12:52:00,
2013-05-16 14:55:00,78.0,59.5,29.52,East,80,0.0,0.0,53,0.00,FEW,,0.06,733.0,WeatherDisplay:10.37,2013-05-16 12:55:00,
2013-05-16 14:56:00,77.9,59.4,29.52,East,88,0.0,0.0,53,0.00,FEW,,0.06,726.0,WeatherDisplay:10.37,2013-05-16 12:56:00,
2013-05-16 14:57:00,77.8,59.8,29.52,East,80,0.0,0.0,54,0.00,FEW,,0.06,726.0,WeatherDisplay:10.37,2013-05-16 12:57:00,
2013-05-16 15:01:00,77.9,59.9,29.52,ENE,57,0.0,0.0,54,0.00,FEW,,0.06,710.0,WeatherDisplay:10.37,2013-05-16 13:01:00,
2013-05-16 15:02:00,78.1,60.1,29.52,ENE,59,0.0,0.0,54,0.00,FEW,,0.06,710.0,WeatherDisplay:10.37,2013-05-16 13:02:00,
2013-05-16 15:06:00,78.1,60.1,29.52,NE,43,0.0,0.0,54,0.00,FEW,,0.06,705.0,WeatherDisplay:10.37,2013-05-16 13:06:00,
2013-05-16 15:07:00,78.2,60.2,29.52,NNE,21,0.0,0.0,54,0.00,FEW,,0.06,712.0,WeatherDisplay:10.37,2013-05-16 13:07:00,
2013-05-16 15:08:00,78.2,60.2,29.52,NNE,12,0.0,0.0,54,0.00,FEW,,0.06,717.0,WeatherDisplay:10.37,2013-05-16 13:08:00,
2013-05-16 15:11:00,78.2,60.2,29.52,NNE,29,0.0,0.0,54,0.00,FEW,,0.06,698.0,WeatherDisplay:10.37,2013-05-16 13:11:00,
2013-05-16 15:12:00,78.3,60.3,29.52,ENE,61,0.0,0.0,54,0.00,FEW,,0.06,701.0,WeatherDisplay:10.37,2013-05-16 13:12:00,
2013-05-16 15:13:00,78.3,60.3,29.52,ENE,61,0.0,0.0,54,0.00,FEW,,0.06,701.0,WeatherDisplay:10.37,2013-05-16 13:13:00,
2013-05-16 15:16:00,78.6,60.6,29.52,NE,49,0.0,0.0,54,0.00,FEW,,0.06,701.0,WeatherDisplay:10.37,2013-05-16 13:16:00,
2013-05-16 15:17:00,78.6,60.6,29.52,NE,38,0.0,0.0,54,0.00,FEW,,0.06,666.0,WeatherDisplay:10.37,2013-05-16 13:17:00,
2013-05-16 15:18:00,78.6,60.6,29.52,NE,38,0.0,0.0,54,0.00,FEW,,0.06,694.0,WeatherDisplay:10.37,2013-05-16 13:18:00,
2013-05-16 15:21:00,78.6,60.0,29.52,NNE,31,0.0,0.0,53,0.00,FEW,,0.06,687.0,WeatherDisplay:10.37,2013-05-16 13:21:00,
2013-05-16 15:22:00,78.6,60.0,29.52,NNE,32,0.0,0.0,53,0.00,FEW,,0.06,687.0,WeatherDisplay:10.37,2013-05-16 13:22:00,
2013-05-16 15:23:00,78.6,59.5,29.52,NNE,32,0.0,0.0,52,0.00,FEW,,0.06,705.0,WeatherDisplay:10.37,2013-05-16 13:23:00,
2013-05-16 15:26:00,78.6,59.5,29.52,NNE,32,0.0,0.0,52,0.00,FEW,,0.06,705.0,WeatherDisplay:10.37,2013-05-16 13:26:00,
2013-05-16 15:27:00,79.0,60.4,29.52,NNE,32,0.0,0.0,53,0.00,FEW,,0.06,705.0,WeatherDisplay:10.37,2013-05-16 13:27:00,
2013-05-16 15:28:00,79.1,60.5,29.52,NNE,32,0.0,0.0,53,0.00,FEW,,0.06,680.0,WeatherDisplay:10.37,2013-05-16 13:28:00,
2013-05-16 15:31:00,79.7,60.5,29.52,NE,42,0.0,0.0,52,0.00,FEW,,0.06,675.0,WeatherDisplay:10.37,2013-05-16 13:31:00,
2013-05-16 15:32:00,79.8,60.1,29.52,NNE,33,0.0,0.0,51,0.00,FEW,,0.06,673.0,WeatherDisplay:10.37,2013-05-16 13:32:00,
2013-05-16 15:33:00,79.8,60.1,29.52,NNE,33,0.0,0.0,51,0.00,FEW,,0.06,673.0,WeatherDisplay:10.37,2013-05-16 13:33:00,
2013-05-16 15:34:00,79.8,60.6,29.52,NNE,32,0.0,0.0,52,0.00,FEW,,0.06,673.0,WeatherDisplay:10.37,2013-05-16 13:34:00,
2013-05-16 15:36:00,79.9,60.2,29.52,NNE,32,0.0,0.0,51,0.00,FEW,,0.06,663.0,WeatherDisplay:10.37,2013-05-16 13:36:00,
2013-05-16 15:38:00,79.9,60.7,29.52,NNE,22,0.0,0.0,52,0.00,FEW,,0.06,638.0,WeatherDisplay:10.37,2013-05-16 13:38:00,
2013-05-16 15:39:00,79.8,60.6,29.52,NNE,27,0.0,0.0,52,0.00,FEW,,0.06,636.0,WeatherDisplay:10.37,2013-05-16 13:39:00,
2013-05-16 15:41:00,79.6,60.4,29.52,NNW,342,0.0,0.0,52,0.00,FEW,,0.06,652.0,WeatherDisplay:10.37,2013-05-16 13:41:00,
2013-05-16 15:43:00,79.5,59.8,29.51,NNW,342,0.0,0.0,51,0.00,FEW,,0.06,654.0,WeatherDisplay:10.37,2013-05-16 13:43:00,
2013-05-16 15:44:00,79.4,59.7,29.51,NNW,342,0.0,0.0,51,0.00,FEW,,0.06,649.0,WeatherDisplay:10.37,2013-05-16 13:44:00,
2013-05-16 15:46:00,79.6,60.4,29.51,NNW,340,0.0,0.0,52,0.00,FEW,,0.06,633.0,WeatherDisplay:10.37,2013-05-16 13:46:00,
2013-05-16 15:48:00,79.6,59.9,29.51,NNE,23,0.0,0.0,51,0.00,FEW,,0.06,633.0,WeatherDisplay:10.37,2013-05-16 13:48:00,
2013-05-16 15:49:00,79.6,59.9,29.51,NNE,17,0.0,0.0,51,0.00,FEW,,0.06,621.0,WeatherDisplay:10.37,2013-05-16 13:49:00,
2013-05-16 15:50:00,79.6,59.9,29.51,NNE,17,0.0,0.0,51,0.00,FEW,,0.06,615.0,WeatherDisplay:10.37,2013-05-16 13:50:00,
2013-05-16 15:51:00,79.5,59.8,29.52,North,360,0.0,0.0,51,0.00,FEW,,0.06,619.0,WeatherDisplay:10.37,2013-05-16 13:51:00,
2013-05-16 15:53:00,79.5,60.3,29.51,North,350,0.0,0.0,52,0.00,FEW,,0.06,619.0,WeatherDisplay:10.37,2013-05-16 13:53:00,
2013-05-16 15:54:00,79.4,60.2,29.51,North,355,0.0,0.0,52,0.00,FEW,,0.06,619.0,WeatherDisplay:10.37,2013-05-16 13:54:00,
2013-05-16 15:55:00,79.4,60.2,29.51,NNW,346,0.0,0.0,52,0.00,FEW,,0.06,605.0,WeatherDisplay:10.37,2013-05-16 13:55:00,
2013-05-16 15:56:00,79.4,60.2,29.51,NNW,346,0.0,0.0,52,0.00,FEW,,0.06,605.0,WeatherDisplay:10.37,2013-05-16 13:56:00,
2013-05-16 15:58:00,79.5,60.3,29.51,NE,56,0.0,0.0,52,0.00,FEW,,0.06,598.0,WeatherDisplay:10.37,2013-05-16 13:58:00,
2013-05-16 15:59:00,79.5,60.3,29.51,East,84,0.0,0.0,52,0.00,FEW,,0.06,598.0,WeatherDisplay:10.37,2013-05-16 13:59:00,
2013-05-16 16:00:00,79.5,60.3,29.51,East,84,0.0,0.0,52,0.00,FEW,,0.06,598.0,WeatherDisplay:10.37,2013-05-16 14:00:00,
2013-05-16 16:01:00,79.6,60.4,29.51,North,5,0.0,0.0,52,0.00,FEW,,0.06,598.0,WeatherDisplay:10.37,2013-05-16 14:01:00,
2013-05-16 16:03:00,79.7,60.5,29.51,NNW,339,0.0,0.0,52,0.00,FEW,,0.06,601.0,WeatherDisplay:10.37,2013-05-16 14:03:00,
2013-05-16 16:04:00,79.7,60.5,29.51,NW,304,0.0,0.0,52,0.00,FEW,,0.06,584.0,WeatherDisplay:10.37,2013-05-16 14:04:00,
2013-05-16 16:05:00,79.7,60.5,29.51,NW,304,0.0,0.0,52,0.00,FEW,,0.06,584.0,WeatherDisplay:10.37,2013-05-16 14:05:00,
2013-05-16 16:06:00,79.7,60.5,29.51,NW,304,0.0,0.0,52,0.00,FEW,,0.06,550.0,WeatherDisplay:10.37,2013-05-16 14:06:00,
2013-05-16 16:07:00,79.7,60.5,29.51,NW,313,0.0,0.0,52,0.00,FEW,,0.06,589.0,WeatherDisplay:10.37,2013-05-16 14:07:00,
2013-05-16 16:08:00,79.7,60.5,29.51,NW,313,0.0,0.0,52,0.00,FEW,,0.06,568.0,WeatherDisplay:10.37,2013-05-16 14:08:00,
2013-05-16 16:10:00,79.6,60.4,29.51,NW,313,0.0,0.0,52,0.00,FEW,,0.06,568.0,WeatherDisplay:10.37,2013-05-16 14:10:00,
2013-05-16 16:11:00,79.6,59.9,29.51,NW,313,0.0,0.0,51,0.00,FEW,,0.06,543.0,WeatherDisplay:10.37,2013-05-16 14:11:00,
2013-05-16 16:12:00,79.6,60.4,29.51,NW,313,0.0,0.0,52,0.00,FEW,,0.06,570.0,WeatherDisplay:10.37,2013-05-16 14:12:00,
2013-05-16 16:14:00,79.6,59.9,29.51,NW,313,0.0,0.0,51,0.00,FEW,,0.06,570.0,WeatherDisplay:10.37,2013-05-16 14:14:00,
2013-05-16 16:15:00,79.6,59.9,29.51,NW,323,0.0,0.0,51,0.00,FEW,,0.06,585.0,WeatherDisplay:10.37,2013-05-16 14:15:00,
2013-05-16 16:16:00,79.7,60.5,29.51,NW,323,0.0,0.0,52,0.00,FEW,,0.06,575.0,WeatherDisplay:10.37,2013-05-16 14:16:00,
2013-05-16 16:17:00,79.7,60.5,29.51,NW,323,0.0,0.0,52,0.00,FEW,,0.06,570.0,WeatherDisplay:10.37,2013-05-16 14:17:00,
2013-05-16 16:19:00,79.7,60.5,29.51,NW,324,0.0,0.0,52,0.00,FEW,,0.06,492.0,WeatherDisplay:10.37,2013-05-16 14:19:00,
2013-05-16 16:20:00,79.8,60.6,29.50,North,355,0.0,0.0,52,0.00,FEW,,0.06,492.0,WeatherDisplay:10.37,2013-05-16 14:20:00,
2013-05-16 16:21:00,79.8,60.6,29.50,ENE,69,0.0,0.0,52,0.00,FEW,,0.06,545.0,WeatherDisplay:10.37,2013-05-16 14:21:00,
2013-05-16 16:22:00,79.7,60.5,29.50,ENE,71,0.0,0.0,52,0.00,FEW,,0.06,573.0,WeatherDisplay:10.37,2013-05-16 14:22:00,
2013-05-16 16:24:00,79.7,60.5,29.51,ENE,57,0.0,0.0,52,0.00,FEW,,0.06,577.0,WeatherDisplay:10.37,2013-05-16 14:24:00,
2013-05-16 16:25:00,79.7,60.0,29.50,NE,39,0.0,0.0,51,0.00,FEW,,0.06,510.0,WeatherDisplay:10.37,2013-05-16 14:25:00,
2013-05-16 16:27:00,79.7,60.0,29.51,NNE,32,0.0,0.0,51,0.00,FEW,,0.06,548.0,WeatherDisplay:10.37,2013-05-16 14:27:00,
2013-05-16 16:28:00,79.7,60.0,29.51,NNE,32,0.0,0.0,51,0.00,FEW,,0.06,538.0,WeatherDisplay:10.37,2013-05-16 14:28:00,
2013-05-16 16:29:00,79.7,60.5,29.50,NNE,29,0.0,0.0,52,0.00,FEW,,0.06,533.0,WeatherDisplay:10.37,2013-05-16 14:29:00,
2013-05-16 16:30:00,79.8,60.6,29.50,NE,55,0.0,0.0,52,0.00,FEW,,0.06,550.0,WeatherDisplay:10.37,2013-05-16 14:30:00,
2013-05-16 16:32:00,79.8,60.6,29.50,NNE,30,0.0,0.0,52,0.00,FEW,,0.06,512.0,WeatherDisplay:10.37,2013-05-16 14:32:00,
2013-05-16 16:33:00,79.8,60.1,29.50,NNE,30,0.0,0.0,51,0.00,FEW,,0.06,512.0,WeatherDisplay:10.37,2013-05-16 14:33:00,
2013-05-16 16:34:00,79.8,60.1,29.50,NNE,27,0.0,0.0,51,0.00,FEW,,0.06,504.0,WeatherDisplay:10.37,2013-05-16 14:34:00,
2013-05-16 16:35:00,79.8,60.1,29.50,NNE,30,0.0,0.0,51,0.00,FEW,,0.06,503.0,WeatherDisplay:10.37,2013-05-16 14:35:00,
2013-05-16 16:36:00,79.8,60.1,29.50,North,5,0.0,0.0,51,0.00,FEW,,0.06,545.0,WeatherDisplay:10.37,2013-05-16 14:36:00,
2013-05-16 16:37:00,79.8,60.6,29.50,North,5,0.0,0.0,52,0.00,FEW,,0.06,545.0,WeatherDisplay:10.37,2013-05-16 14:37:00,
2013-05-16 16:38:00,79.8,60.6,29.50,NNW,343,0.0,0.0,52,0.00,FEW,,0.06,536.0,WeatherDisplay:10.37,2013-05-16 14:38:00,
2013-05-16 16:39:00,79.8,60.6,29.50,NW,304,0.0,0.0,52,0.00,FEW,,0.06,529.0,WeatherDisplay:10.37,2013-05-16 14:39:00,
2013-05-16 16:41:00,79.8,60.6,29.50,WNW,300,0.0,0.0,52,0.00,FEW,,0.06,513.0,WeatherDisplay:10.37,2013-05-16 14:41:00,
2013-05-16 16:42:00,79.8,60.6,29.50,NW,317,0.0,0.0,52,0.00,FEW,,0.06,520.0,WeatherDisplay:10.37,2013-05-16 14:42:00,
2013-05-16 16:43:00,79.8,60.6,29.50,NNE,18,0.0,0.0,52,0.00,FEW,,0.06,520.0,WeatherDisplay:10.37,2013-05-16 14:43:00,
2013-05-16 16:44:00,79.9,61.2,29.50,North,5,0.0,0.0,53,0.00,FEW,,0.06,520.0,WeatherDisplay:10.37,2013-05-16 14:44:00,
2013-05-16 16:46:00,80.0,60.8,29.50,NE,40,0.0,0.0,52,0.00,FEW,,0.06,503.0,WeatherDisplay:10.37,2013-05-16 14:46:00,
2013-05-16 16:48:00,80.1,60.9,29.50,NNW,328,0.0,0.0,52,0.00,FEW,,0.06,506.0,WeatherDisplay:10.37,2013-05-16 14:48:00,
2013-05-16 16:49:00,80.1,60.3,29.50,NE,39,0.0,0.0,51,0.00,FEW,,0.06,394.0,WeatherDisplay:10.37,2013-05-16 14:49:00,
2013-05-16 16:51:00,80.1,60.3,29.50,ENE,57,0.0,0.0,51,0.00,FEW,,0.06,304.0,WeatherDisplay:10.37,2013-05-16 14:51:00,
2013-05-16 16:52:00,80.0,60.2,29.50,ENE,57,0.0,0.0,51,0.00,FEW,,0.06,332.0,WeatherDisplay:10.37,2013-05-16 14:52:00,
2013-05-16 16:53:00,80.0,60.2,29.50,ENE,58,0.0,0.0,51,0.00,FEW,,0.06,264.0,WeatherDisplay:10.37,2013-05-16 14:53:00,
2013-05-16 16:54:00,80.1,60.3,29.50,ENE,57,0.0,0.0,51,0.00,FEW,,0.06,274.0,WeatherDisplay:10.37,2013-05-16 14:54:00,
2013-05-16 16:56:00,80.3,61.1,29.50,NNE,33,0.0,0.0,52,0.00,FEW,,0.06,323.0,WeatherDisplay:10.37,2013-05-16 14:56:00,
2013-05-16 16:57:00,80.3,61.1,29.50,NNE,33,0.0,0.0,52,0.00,FEW,,0.06,323.0,WeatherDisplay:10.37,2013-05-16 14:57:00,
2013-05-16 16:58:00,80.3,60.5,29.50,NNE,32,0.0,0.0,51,0.00,FEW,,0.06,323.0,WeatherDisplay:10.37,2013-05-16 14:58:00,
2013-05-16 16:59:00,80.3,60.5,29.50,NNE,26,0.0,0.0,51,0.00,FEW,,0.06,323.0,WeatherDisplay:10.37,2013-05-16 14:59:00,
2013-05-16 17:02:00,80.2,61.0,29.50,NNE,13,0.0,0.0,52,0.00,FEW,,0.06,302.0,WeatherDisplay:10.37,2013-05-16 15:02:00,
2013-05-16 17:03:00,80.1,60.3,29.50,NE,48,0.0,0.0,51,0.00,FEW,,0.06,343.0,WeatherDisplay:10.37,2013-05-16 15:03:00,
2013-05-16 17:04:00,80.1,60.3,29.50,NE,48,0.0,0.0,51,0.00,FEW,,0.06,343.0,WeatherDisplay:10.37,2013-05-16 15:04:00,
2013-05-16 17:05:00,80.0,60.2,29.50,NE,48,0.0,0.0,51,0.00,FEW,,0.06,343.0,WeatherDisplay:10.37,2013-05-16 15:05:00,
2013-05-16 17:07:00,79.9,60.2,29.50,NE,40,0.0,0.0,51,0.00,FEW,,0.06,248.0,WeatherDisplay:10.37,2013-05-16 15:07:00,
2013-05-16 17:08:00,79.9,60.2,29.50,NE,39,0.0,0.0,51,0.00,FEW,,0.06,244.0,WeatherDisplay:10.37,2013-05-16 15:08:00,
2013-05-16 17:09:00,79.9,60.7,29.50,NE,34,0.0,0.0,52,0.00,FEW,,0.06,244.0,WeatherDisplay:10.37,2013-05-16 15:09:00,
2013-05-16 17:10:00,79.9,60.7,29.50,NE,34,0.0,0.0,52,0.00,FEW,,0.06,218.0,WeatherDisplay:10.37,2013-05-16 15:10:00,
2013-05-16 17:12:00,79.9,60.7,29.49,NNE,32,0.0,0.0,52,0.00,FEW,,0.06,202.0,WeatherDisplay:10.37,2013-05-16 15:12:00,
2013-05-16 17:13:00,79.9,60.2,29.49,NNE,32,0.0,0.0,51,0.00,FEW,,0.06,195.0,WeatherDisplay:10.37,2013-05-16 15:13:00,
2013-05-16 17:14:00,79.9,60.2,29.49,NNE,32,0.0,0.0,51,0.00,FEW,,0.06,178.0,WeatherDisplay:10.37,2013-05-16 15:14:00,
2013-05-16 17:16:00,80.0,60.2,29.49,NNE,32,0.0,0.0,51,0.00,FEW,,0.06,169.0,WeatherDisplay:10.37,2013-05-16 15:16:00,
2013-05-16 17:17:00,80.0,60.8,29.49,NNE,32,0.0,0.0,52,0.00,FEW,,0.06,165.0,WeatherDisplay:10.37,2013-05-16 15:17:00,
2013-05-16 17:19:00,80.2,61.0,29.49,NNE,32,0.0,0.0,52,0.00,FEW,,0.06,165.0,WeatherDisplay:10.37,2013-05-16 15:19:00,
2013-05-16 17:20:00,80.2,61.0,29.49,NNE,32,0.0,0.0,52,0.00,FEW,,0.06,174.0,WeatherDisplay:10.37,2013-05-16 15:20:00,
2013-05-16 17:21:00,80.2,60.4,29.49,NNE,32,0.0,0.0,51,0.00,FEW,,0.06,174.0,WeatherDisplay:10.37,2013-05-16 15:21:00,
2013-05-16 17:22:00,80.3,60.5,29.49,NNE,32,0.0,0.0,51,0.00,FEW,,0.06,214.0,WeatherDisplay:10.37,2013-05-16 15:22:00,
2013-05-16 17:23:00,80.3,60.5,29.49,NNE,32,0.0,0.0,51,0.00,FEW,,0.06,214.0,WeatherDisplay:10.37,2013-05-16 15:23:00,
2013-05-16 17:24:00,80.3,60.5,29.49,ESE,117,0.0,0.0,51,0.00,FEW,,0.06,292.0,WeatherDisplay:10.37,2013-05-16 15:24:00,
2013-05-16 17:25:00,80.4,60.6,29.49,SE,126,0.0,0.0,51,0.00,FEW,,0.06,301.0,WeatherDisplay:10.37,2013-05-16 15:25:00,
2013-05-16 17:26:00,80.4,60.6,29.49,SE,126,0.0,0.0,51,0.00,FEW,,0.06,301.0,WeatherDisplay:10.37,2013-05-16 15:26:00,
2013-05-16 17:27:00,80.5,60.7,29.49,SE,126,0.0,0.0,51,0.00,FEW,,0.06,301.0,WeatherDisplay:10.37,2013-05-16 15:27:00,
2013-05-16 17:28:00,80.5,60.7,29.49,SE,126,0.0,0.0,51,0.00,FEW,,0.06,301.0,WeatherDisplay:10.37,2013-05-16 15:28:00,
2013-05-16 17:29:00,80.7,60.9,29.49,SE,126,0.0,0.0,51,0.00,FEW,,0.06,301.0,WeatherDisplay:10.37,2013-05-16 15:29:00,
2013-05-16 17:31:00,80.8,60.4,29.49,ESE,123,0.0,0.0,50,0.00,FEW,,0.06,246.0,WeatherDisplay:10.37,2013-05-16 15:31:00,
2013-05-16 17:32:00,80.9,60.5,29.49,SE,124,0.0,0.0,50,0.00,FEW,,0.06,290.0,WeatherDisplay:10.37,2013-05-16 15:32:00,
2013-05-16 17:33:00,80.9,60.5,29.49,SE,124,0.0,0.0,50,0.00,FEW,,0.06,290.0,WeatherDisplay:10.37,2013-05-16 15:33:00,
2013-05-16 17:34:00,80.9,59.9,29.49,SE,128,0.0,0.0,49,0.00,FEW,,0.06,255.0,WeatherDisplay:10.37,2013-05-16 15:34:00,
2013-05-16 17:36:00,80.9,59.9,29.49,SE,130,0.0,0.0,49,0.00,FEW,,0.06,285.0,WeatherDisplay:10.37,2013-05-16 15:36:00,
2013-05-16 17:38:00,80.8,59.9,29.49,ESE,119,0.0,0.0,49,0.00,FEW,,0.06,255.0,WeatherDisplay:10.37,2013-05-16 15:38:00,
2013-05-16 17:39:00,80.7,59.8,29.49,ESE,120,0.0,0.0,49,0.00,FEW,,0.06,218.0,WeatherDisplay:10.37,2013-05-16 15:39:00,
2013-05-16 17:41:00,80.6,60.2,29.49,ESE,119,0.0,0.0,50,0.00,FEW,,0.06,218.0,WeatherDisplay:10.37,2013-05-16 15:41:00,
2013-05-16 17:43:00,80.7,60.3,29.49,ESE,122,0.0,0.0,50,0.00,FEW,,0.06,179.0,WeatherDisplay:10.37,2013-05-16 15:43:00,
2013-05-16 17:44:00,80.7,60.3,29.50,SE,144,0.0,0.0,50,0.00,FEW,,0.06,165.0,WeatherDisplay:10.37,2013-05-16 15:44:00,
2013-05-16 17:46:00,80.6,59.7,29.50,SE,146,0.0,0.0,49,0.00,FEW,,0.06,123.0,WeatherDisplay:10.37,2013-05-16 15:46:00,
2013-05-16 17:48:00,80.4,60.1,29.50,SE,142,0.0,0.0,50,0.00,FEW,,0.06,123.0,WeatherDisplay:10.37,2013-05-16 15:48:00,
2013-05-16 17:49:00,80.4,60.1,29.50,SE,138,0.0,0.0,50,0.00,FEW,,0.06,113.0,WeatherDisplay:10.37,2013-05-16 15:49:00,
2013-05-16 17:52:00,80.2,59.9,29.50,SE,143,0.0,0.0,50,0.00,FEW,,0.06,100.0,WeatherDisplay:10.37,2013-05-16 15:52:00,
2013-05-16 17:53:00,80.1,59.8,29.50,SE,136,0.0,0.0,50,0.00,FEW,,0.06,93.0,WeatherDisplay:10.37,2013-05-16 15:53:00,
2013-05-16 17:54:00,80.0,59.7,29.50,SW,215,0.0,0.0,50,0.00,SCT,,0.06,93.0,WeatherDisplay:10.37,2013-05-16 15:54:00,
2013-05-16 17:55:00,80.0,60.2,29.50,SSW,213,0.0,0.0,51,0.00,SCT,,0.06,86.0,WeatherDisplay:10.37,2013-05-16 15:55:00,
2013-05-16 17:57:00,79.9,60.2,29.50,SSW,210,0.0,0.0,51,0.00,SCT,,0.06,84.0,WeatherDisplay:10.37,2013-05-16 15:57:00,
2013-05-16 17:58:00,79.8,60.1,29.50,SSW,198,0.0,0.0,51,0.00,SCT,,0.06,90.0,WeatherDisplay:10.37,2013-05-16 15:58:00,
2013-05-16 17:59:00,79.7,58.8,29.50,SSW,205,0.0,0.0,49,0.00,SCT,,0.06,88.0,WeatherDisplay:10.37,2013-05-16 15:59:00,
2013-05-16 18:00:00,79.6,57.6,29.50,South,191,0.0,0.0,47,0.00,SCT,,0.06,84.0,WeatherDisplay:10.37,2013-05-16 16:00:00,
2013-05-16 18:02:00,79.2,56.6,29.50,SSW,200,0.0,0.0,46,0.00,SCT,,0.06,79.0,WeatherDisplay:10.37,2013-05-16 16:02:00,
2013-05-16 18:03:00,78.9,56.4,29.51,South,181,0.0,0.0,46,0.00,SCT,,0.06,69.0,WeatherDisplay:10.37,2013-05-16 16:03:00,
2013-05-16 18:04:00,78.7,56.2,29.50,South,191,0.0,0.0,46,0.00,SCT,,0.06,69.0,WeatherDisplay:10.37,2013-05-16 16:04:00,
2013-05-16 18:05:00,78.6,56.1,29.50,South,186,0.0,0.0,46,0.00,SCT,,0.06,62.0,WeatherDisplay:10.37,2013-05-16 16:05:00,
2013-05-16 18:07:00,78.2,55.1,29.51,SSW,209,0.0,0.0,45,0.00,SCT,,0.06,58.0,WeatherDisplay:10.37,2013-05-16 16:07:00,
2013-05-16 18:08:00,77.9,54.8,29.51,SSW,207,0.0,0.0,45,0.00,SCT,,0.06,58.0,WeatherDisplay:10.37,2013-05-16 16:08:00,
2013-05-16 18:09:00,77.8,54.1,29.51,SW,214,0.0,0.0,44,0.00,SCT,,0.06,58.0,WeatherDisplay:10.37,2013-05-16 16:09:00,
2013-05-16 18:10:00,77.7,54.0,29.51,SSW,198,0.0,0.0,44,0.00,SCT,,0.06,58.0,WeatherDisplay:10.37,2013-05-16 16:10:00,
2013-05-16 18:12:00,77.3,53.7,29.52,SW,220,0.0,0.0,44,0.00,BKN,,0.06,58.0,WeatherDisplay:10.37,2013-05-16 16:12:00,
2013-05-16 18:13:00,77.2,53.6,29.51,SSW,211,0.0,0.0,44,0.00,BKN,,0.06,58.0,WeatherDisplay:10.37,2013-05-16 16:13:00,
2013-05-16 18:14:00,77.1,53.5,29.52,SW,225,0.0,0.0,44,0.00,BKN,,0.06,58.0,WeatherDisplay:10.37,2013-05-16 16:14:00,
2013-05-16 18:15:00,77.0,53.4,29.52,SSW,204,0.0,0.0,44,0.00,BKN,,0.06,58.0,WeatherDisplay:10.37,2013-05-16 16:15:00,
2013-05-16 18:17:00,76.7,53.8,29.51,SSW,200,0.0,0.0,45,0.00,BKN,,0.06,65.0,WeatherDisplay:10.37,2013-05-16 16:17:00,
2013-05-16 18:19:00,76.5,53.6,29.51,SW,216,0.0,0.0,45,0.00,BKN,,0.06,69.0,WeatherDisplay:10.37,2013-05-16 16:19:00,
2013-05-16 18:20:00,76.3,54.6,29.51,South,190,0.0,0.0,47,0.00,BKN,,0.06,69.0,WeatherDisplay:10.37,2013-05-16 16:20:00,
2013-05-16 18:22:00,76.0,54.3,29.52,SSW,201,0.0,0.0,47,0.00,BKN,,0.06,62.0,WeatherDisplay:10.37,2013-05-16 16:22:00,
2013-05-16 18:24:00,75.7,54.6,29.52,SSW,196,0.0,0.0,48,0.00,SCT,,0.06,62.0,WeatherDisplay:10.37,2013-05-16 16:24:00,
2013-05-16 18:25:00,75.6,55.1,29.52,SSW,192,0.0,0.0,49,0.00,SCT,,0.06,62.0,WeatherDisplay:10.37,2013-05-16 16:25:00,
2013-05-16 18:27:00,75.3,54.8,29.52,SSW,196,0.0,0.0,49,0.00,SCT,,0.06,53.0,WeatherDisplay:10.37,2013-05-16 16:27:00,
2013-05-16 18:29:00,75.2,55.3,29.52,SSW,193,0.0,0.0,50,0.00,SCT,,0.06,49.0,WeatherDisplay:10.37,2013-05-16 16:29:00,
2013-05-16 18:30:00,75.2,55.3,29.52,SSW,207,0.0,0.0,50,0.00,SCT,,0.06,49.0,WeatherDisplay:10.37,2013-05-16 16:30:00,
2013-05-16 18:31:00,75.2,55.3,29.52,WSW,242,0.0,0.0,50,0.00,BKN,,0.06,49.0,WeatherDisplay:10.37,2013-05-16 16:31:00,
2013-05-16 18:33:00,75.0,55.1,29.52,SW,219,0.0,0.0,50,0.00,BKN,,0.06,44.0,WeatherDisplay:10.37,2013-05-16 16:33:00,
2013-05-16 18:35:00,75.0,55.1,29.52,SW,217,0.0,0.0,50,0.00,BKN,,0.06,56.0,WeatherDisplay:10.37,2013-05-16 16:35:00,
2013-05-16 18:36:00,75.0,55.6,29.52,SSW,198,0.0,0.0,51,0.00,BKN,,0.06,56.0,WeatherDisplay:10.37,2013-05-16 16:36:00,
2013-05-16 18:38:00,74.9,55.6,29.52,SW,221,0.0,0.0,51,0.00,BKN,,0.06,70.0,WeatherDisplay:10.37,2013-05-16 16:38:00,
2013-05-16 18:40:00,74.9,55.6,29.52,SW,222,0.0,0.0,51,0.00,SCT,,0.06,72.0,WeatherDisplay:10.37,2013-05-16 16:40:00,
2013-05-16 18:41:00,74.8,55.5,29.52,SW,222,0.0,0.0,51,0.00,SCT,,0.06,70.0,WeatherDisplay:10.37,2013-05-16 16:41:00,
2013-05-16 18:44:00,74.9,56.1,29.52,SW,225,0.0,0.0,52,0.00,SCT,,0.06,97.0,WeatherDisplay:10.37,2013-05-16 16:44:00,
2013-05-16 18:45:00,74.9,56.1,29.52,SW,227,0.0,0.0,52,0.00,SCT,,0.06,127.0,WeatherDisplay:10.37,2013-05-16 16:45:00,
2013-05-16 18:46:00,74.9,56.1,29.52,SW,232,0.0,0.0,52,0.00,SCT,,0.06,127.0,WeatherDisplay:10.37,2013-05-16 16:46:00,
2013-05-16 18:47:00,75.0,56.2,29.52,SW,232,0.0,0.0,52,0.00,FEW,,0.06,142.0,WeatherDisplay:10.37,2013-05-16 16:47:00,
2013-05-16 18:49:00,75.1,56.3,29.52,SW,223,0.0,0.0,52,0.00,FEW,,0.06,149.0,WeatherDisplay:10.37,2013-05-16 16:49:00,
2013-05-16 18:50:00,75.2,56.4,29.51,South,181,0.0,0.0,52,0.00,FEW,,0.06,149.0,WeatherDisplay:10.37,2013-05-16 16:50:00,
2013-05-16 18:52:00,75.2,56.4,29.52,SSW,202,0.0,0.0,52,0.00,FEW,,0.06,167.0,WeatherDisplay:10.37,2013-05-16 16:52:00,
2013-05-16 18:53:00,75.2,56.4,29.51,SSW,202,0.0,0.0,52,0.00,FEW,,0.06,174.0,WeatherDisplay:10.37,2013-05-16 16:53:00,
2013-05-16 18:54:00,75.2,56.4,29.52,SSW,202,0.0,0.0,52,0.00,FEW,,0.06,174.0,WeatherDisplay:10.37,2013-05-16 16:54:00,
2013-05-16 18:55:00,75.3,56.5,29.52,SSW,202,0.0,0.0,52,0.00,FEW,,0.06,178.0,WeatherDisplay:10.37,2013-05-16 16:55:00,
2013-05-16 18:56:00,75.4,56.5,29.52,WSW,240,0.0,0.0,52,0.00,FEW,,0.06,178.0,WeatherDisplay:10.37,2013-05-16 16:56:00,
2013-05-16 18:57:00,75.4,56.5,29.52,SSE,149,0.0,0.0,52,0.00,FEW,,0.06,178.0,WeatherDisplay:10.37,2013-05-16 16:57:00,
2013-05-16 18:59:00,75.4,56.0,29.52,WSW,243,0.0,0.0,51,0.00,FEW,,0.06,151.0,WeatherDisplay:10.37,2013-05-16 16:59:00,
2013-05-16 19:00:00,75.5,56.6,29.52,SSW,196,0.0,0.0,52,0.00,FEW,,0.06,165.0,WeatherDisplay:10.37,2013-05-16 17:00:00,
2013-05-16 19:01:00,75.5,56.1,29.52,SSW,202,0.0,0.0,51,0.00,FEW,,0.06,169.0,WeatherDisplay:10.37,2013-05-16 17:01:00,
2013-05-16 19:02:00,75.5,56.1,29.52,South,178,0.0,0.0,51,0.00,FEW,,0.06,163.0,WeatherDisplay:10.37,2013-05-16 17:02:00,
2013-05-16 19:04:00,75.6,56.2,29.52,South,175,0.0,0.0,51,0.00,FEW,,0.06,155.0,WeatherDisplay:10.37,2013-05-16 17:04:00,
2013-05-16 19:05:00,75.6,56.2,29.52,SSE,159,0.0,0.0,51,0.00,FEW,,0.06,146.0,WeatherDisplay:10.37,2013-05-16 17:05:00,
2013-05-16 19:07:00,75.6,55.6,29.52,SSE,161,0.0,0.0,50,0.00,FEW,,0.06,146.0,WeatherDisplay:10.37,2013-05-16 17:07:00,
2013-05-16 19:08:00,75.6,55.6,29.52,SSW,194,0.0,0.0,50,0.00,FEW,,0.06,146.0,WeatherDisplay:10.37,2013-05-16 17:08:00,
2013-05-16 19:09:00,75.7,55.7,29.52,South,185,0.0,0.0,50,0.00,FEW,,0.06,149.0,WeatherDisplay:10.37,2013-05-16 17:09:00,
2013-05-16 19:11:00,75.7,55.7,29.52,SSW,194,0.0,0.0,50,0.00,FEW,,0.06,146.0,WeatherDisplay:10.37,2013-05-16 17:11:00,
2013-05-16 19:12:00,75.7,55.7,29.52,SSW,194,0.0,0.0,50,0.00,FEW,,0.06,139.0,WeatherDisplay:10.37,2013-05-16 17:12:00,
2013-05-16 19:13:00,75.7,55.7,29.52,SSE,161,0.0,0.0,50,0.00,FEW,,0.06,134.0,WeatherDisplay:10.37,2013-05-16 17:13:00,
2013-05-16 19:14:00,75.7,55.7,29.53,SSE,163,0.0,0.0,50,0.00,FEW,,0.06,134.0,WeatherDisplay:10.37,2013-05-16 17:14:00,
2013-05-16 19:16:00,75.7,55.7,29.52,SSE,164,0.0,0.0,50,0.00,FEW,,0.06,134.0,WeatherDisplay:10.37,2013-05-16 17:16:00,
2013-05-16 19:17:00,75.7,55.7,29.52,SSE,150,0.0,0.0,50,0.00,FEW,,0.06,125.0,WeatherDisplay:10.37,2013-05-16 17:17:00,
2013-05-16 19:18:00,75.6,55.6,29.52,SE,134,0.0,0.0,50,0.00,FEW,,0.06,123.0,WeatherDisplay:10.37,2013-05-16 17:18:00,
2013-05-16 19:19:00,75.6,55.6,29.52,ESE,120,0.0,0.0,50,0.00,FEW,,0.06,123.0,WeatherDisplay:10.37,2013-05-16 17:19:00,
2013-05-16 19:20:00,75.6,55.6,29.52,ESE,117,0.0,0.0,50,0.00,FEW,,0.06,123.0,WeatherDisplay:10.37,2013-05-16 17:20:00,
2013-05-16 19:21:00,75.6,56.2,29.52,ESE,116,0.0,0.0,51,0.00,FEW,,0.06,120.0,WeatherDisplay:10.37,2013-05-16 17:21:00,
2013-05-16 19:22:00,75.6,56.2,29.52,SSE,150,0.0,0.0,51,0.00,FEW,,0.06,114.0,WeatherDisplay:10.37,2013-05-16 17:22:00,
2013-05-16 19:24:00,75.5,56.1,29.52,South,174,0.0,0.0,51,0.00,FEW,,0.06,111.0,WeatherDisplay:10.37,2013-05-16 17:24:00,
2013-05-16 19:25:00,75.5,56.1,29.52,SSE,154,0.0,0.0,51,0.00,FEW,,0.06,109.0,WeatherDisplay:10.37,2013-05-16 17:25:00,
2013-05-16 19:26:00,75.5,56.1,29.52,SSE,154,0.0,0.0,51,0.00,FEW,,0.06,104.0,WeatherDisplay:10.37,2013-05-16 17:26:00,
2013-05-16 19:27:00,75.5,56.1,29.52,SSE,159,0.0,0.0,51,0.00,FEW,,0.06,98.0,WeatherDisplay:10.37,2013-05-16 17:27:00,
2013-05-16 19:29:00,75.4,56.0,29.52,SSE,163,0.0,0.0,51,0.00,FEW,,0.06,95.0,WeatherDisplay:10.37,2013-05-16 17:29:00,
2013-05-16 19:30:00,75.4,56.0,29.52,SSW,192,0.0,0.0,51,0.00,FEW,,0.06,90.0,WeatherDisplay:10.37,2013-05-16 17:30:00,
2013-05-16 19:31:00,75.3,55.9,29.52,SSE,156,0.0,0.0,51,0.00,FEW,,0.06,86.0,WeatherDisplay:10.37,2013-05-16 17:31:00,
2013-05-16 19:33:00,75.3,55.9,29.52,SSE,155,0.0,0.0,51,0.00,FEW,,0.06,76.0,WeatherDisplay:10.37,2013-05-16 17:33:00,
2013-05-16 19:34:00,75.3,55.9,29.52,SSE,147,0.0,0.0,51,0.00,FEW,,0.06,72.0,WeatherDisplay:10.37,2013-05-16 17:34:00,
2013-05-16 19:35:00,75.3,55.9,29.52,SSE,147,0.0,0.0,51,0.00,FEW,,0.06,70.0,WeatherDisplay:10.37,2013-05-16 17:35:00,
2013-05-16 19:37:00,75.3,56.5,29.53,South,189,0.0,0.0,52,0.00,FEW,,0.06,65.0,WeatherDisplay:10.37,2013-05-16 17:37:00,
2013-05-16 19:38:00,75.3,56.5,29.53,SSW,198,0.0,0.0,52,0.00,FEW,,0.06,60.0,WeatherDisplay:10.37,2013-05-16 17:38:00,
2013-05-16 19:39:00,75.2,56.4,29.53,SSE,156,0.0,0.0,52,0.00,FEW,,0.06,60.0,WeatherDisplay:10.37,2013-05-16 17:39:00,
2013-05-16 19:40:00,75.2,56.4,29.53,SSE,158,0.0,0.0,52,0.00,FEW,,0.06,60.0,WeatherDisplay:10.37,2013-05-16 17:40:00,
2013-05-16 19:42:00,75.2,56.4,29.53,South,175,0.0,0.0,52,0.00,FEW,,0.06,49.0,WeatherDisplay:10.37,2013-05-16 17:42:00,
2013-05-16 19:43:00,75.2,56.4,29.53,SSE,165,0.0,0.0,52,0.00,FEW,,0.06,49.0,WeatherDisplay:10.37,2013-05-16 17:43:00,
2013-05-16 19:44:00,75.1,56.3,29.53,SE,144,0.0,0.0,52,0.00,FEW,,0.06,44.0,WeatherDisplay:10.37,2013-05-16 17:44:00,
2013-05-16 19:45:00,75.1,56.3,29.53,SE,146,0.0,0.0,52,0.00,FEW,,0.06,42.0,WeatherDisplay:10.37,2013-05-16 17:45:00,
2013-05-16 19:47:00,75.0,56.2,29.53,SE,142,0.0,0.0,52,0.00,FEW,,0.06,37.0,WeatherDisplay:10.37,2013-05-16 17:47:00,
2013-05-16 19:49:00,74.9,56.1,29.53,SE,144,0.0,0.0,52,0.00,FEW,,0.06,37.0,WeatherDisplay:10.37,2013-05-16 17:49:00,
2013-05-16 19:50:00,74.9,56.1,29.53,SSE,148,0.0,0.0,52,0.00,FEW,,0.06,32.0,WeatherDisplay:10.37,2013-05-16 17:50:00,
2013-05-16 19:53:00,74.7,55.9,29.53,SSE,157,0.0,0.0,52,0.00,FEW,,0.06,28.0,WeatherDisplay:10.37,2013-05-16 17:53:00,
2013-05-16 19:54:00,74.7,55.9,29.53,South,190,0.0,0.0,52,0.00,FEW,,0.06,26.0,WeatherDisplay:10.37,2013-05-16 17:54:00,
2013-05-16 19:55:00,74.7,55.9,29.53,SSE,158,0.0,0.0,52,0.00,FEW,,0.06,26.0,WeatherDisplay:10.37,2013-05-16 17:55:00,
2013-05-16 19:56:00,74.6,56.3,29.53,South,175,0.0,0.0,53,0.00,FEW,,0.06,26.0,WeatherDisplay:10.37,2013-05-16 17:56:00,
2013-05-16 19:59:00,74.5,56.2,29.53,SSE,158,0.0,0.0,53,0.00,FEW,,0.06,25.0,WeatherDisplay:10.37,2013-05-16 17:59:00,
2013-05-16 20:00:00,74.5,56.2,29.53,SE,141,0.0,0.0,53,0.00,FEW,,0.06,25.0,WeatherDisplay:10.37,2013-05-16 18:00:00,
2013-05-16 20:01:00,74.5,56.2,29.53,SSE,153,0.0,0.0,53,0.00,FEW,,0.06,25.0,WeatherDisplay:10.37,2013-05-16 18:01:00,
2013-05-16 20:04:00,74.4,56.2,29.53,SSE,153,0.0,0.0,53,0.00,FEW,,0.06,16.0,WeatherDisplay:10.37,2013-05-16 18:04:00,
2013-05-16 20:05:00,74.4,56.2,29.53,South,182,0.0,0.0,53,0.00,FEW,,0.06,14.0,WeatherDisplay:10.37,2013-05-16 18:05:00,
2013-05-16 20:06:00,74.3,56.1,29.53,South,180,0.0,0.0,53,0.00,FEW,,0.06,14.0,WeatherDisplay:10.37,2013-05-16 18:06:00,
2013-05-16 20:09:00,74.3,56.6,29.53,SSW,212,0.0,0.0,54,0.00,FEW,,0.06,9.0,WeatherDisplay:10.37,2013-05-16 18:09:00,
2013-05-16 20:10:00,74.2,56.5,29.53,SSW,212,0.0,0.0,54,0.00,FEW,,0.06,9.0,WeatherDisplay:10.37,2013-05-16 18:10:00,
2013-05-16 20:11:00,74.1,56.9,29.53,WSW,243,0.0,0.0,55,0.00,FEW,,0.06,7.0,WeatherDisplay:10.37,2013-05-16 18:11:00,
2013-05-16 20:14:00,73.6,56.9,29.53,SW,234,0.0,0.0,56,0.00,FEW,,0.06,5.0,WeatherDisplay:10.37,2013-05-16 18:14:00,
2013-05-16 20:15:00,73.5,56.8,29.53,WSW,254,0.0,0.0,56,0.00,FEW,,0.06,5.0,WeatherDisplay:10.37,2013-05-16 18:15:00,
2013-05-16 20:16:00,73.5,57.3,29.53,WSW,252,0.0,0.0,57,0.00,FEW,,0.06,5.0,WeatherDisplay:10.37,2013-05-16 18:16:00,
2013-05-16 20:20:00,72.9,57.3,29.54,SW,220,0.0,0.0,58,0.00,FEW,,0.06,0.0,WeatherDisplay:10.37,2013-05-16 18:20:00,
2013-05-16 20:21:00,72.8,57.6,29.53,WSW,240,0.0,0.0,59,0.00,FEW,,0.06,0.0,WeatherDisplay:10.37,2013-05-16 18:21:00,
2013-05-16 20:25:00,72.5,57.4,29.53,SW,236,0.0,0.0,59,0.00,FEW,,0.06,0.0,WeatherDisplay:10.37,2013-05-16 18:25:00,
2013-05-16 20:26:00,72.4,57.3,29.54,WSW,245,0.0,0.0,59,0.00,FEW,,0.06,0.0,WeatherDisplay:10.37,2013-05-16 18:26:00,
2013-05-16 20:30:00,72.2,57.5,29.54,WSW,245,0.0,0.0,60,0.00,FEW,,0.06,0.0,WeatherDisplay:10.37,2013-05-16 18:30:00,
2013-05-16 20:31:00,72.1,57.4,29.54,WSW,240,0.0,0.0,60,0.00,FEW,,0.06,0.0,WeatherDisplay:10.37,2013-05-16 18:31:00,
2013-05-16 20:32:00,72.1,57.4,29.54,WSW,240,0.0,0.0,60,0.00,FEW,,0.06,0.0,WeatherDisplay:10.37,2013-05-16 18:32:00,
2013-05-16 20:35:00,71.9,57.7,29.54,SW,229,0.0,0.0,61,0.00,FEW,,0.06,0.0,WeatherDisplay:10.37,2013-05-16 18:35:00,
2013-05-16 20:36:00,71.9,57.7,29.54,SSW,209,0.0,0.0,61,0.00,FEW,,0.06,0.0,WeatherDisplay:10.37,2013-05-16 18:36:00,
2013-05-16 20:37:00,71.8,57.6,29.54,SW,214,0.0,0.0,61,0.00,FEW,,0.06,0.0,WeatherDisplay:10.37,2013-05-16 18:37:00,
2013-05-16 20:41:00,71.6,57.9,29.54,SSW,209,0.0,0.0,62,0.00,FEW,,0.06,0.0,WeatherDisplay:10.37,2013-05-16 18:41:00,
2013-05-16 20:42:00,71.6,57.9,29.54,SSW,209,0.0,0.0,62,0.00,FEW,,0.06,0.0,WeatherDisplay:10.37,2013-05-16 18:42:00,
2013-05-16 20:46:00,71.5,57.8,29.53,SSW,205,0.0,0.0,62,0.00,FEW,,0.06,0.0,WeatherDisplay:10.37,2013-05-16 18:46:00,
2013-05-16 20:47:00,71.4,57.7,29.54,SSW,205,0.0,0.0,62,0.00,FEW,,0.06,0.0,WeatherDisplay:10.37,2013-05-16 18:47:00,
2013-05-16 20:48:00,71.4,57.7,29.54,SW,218,0.0,0.0,62,0.00,FEW,,0.06,0.0,WeatherDisplay:10.37,2013-05-16 18:48:00,
2013-05-16 20:51:00,71.3,58.1,29.54,SW,216,0.0,0.0,63,0.00,FEW,,0.06,0.0,WeatherDisplay:10.37,2013-05-16 18:51:00,
2013-05-16 20:52:00,71.2,58.0,29.55,SW,216,0.0,0.0,63,0.00,FEW,,0.06,0.0,WeatherDisplay:10.37,2013-05-16 18:52:00,
2013-05-16 20:53:00,71.2,58.0,29.54,SW,216,0.0,0.0,63,0.00,FEW,,0.06,0.0,WeatherDisplay:10.37,2013-05-16 18:53:00,
2013-05-16 20:56:00,71.2,58.0,29.55,SW,215,0.0,0.0,63,0.00,FEW,,0.06,0.0,WeatherDisplay:10.37,2013-05-16 18:56:00,
2013-05-16 20:57:00,71.2,58.0,29.55,SW,215,0.0,0.0,63,0.00,FEW,,0.06,0.0,WeatherDisplay:10.37,2013-05-16 18:57:00,
2013-05-16 20:58:00,71.2,58.0,29.54,SW,215,0.0,0.0,63,0.00,FEW,,0.06,0.0,WeatherDisplay:10.37,2013-05-16 18:58:00,
2013-05-16 21:01:00,71.1,57.9,29.54,SW,215,0.0,0.0,63,0.00,FEW,,0.06,0.0,WeatherDisplay:10.37,2013-05-16 19:01:00,
2013-05-16 21:02:00,71.1,57.9,29.54,SW,215,0.0,0.0,63,0.00,FEW,,0.06,0.0,WeatherDisplay:10.37,2013-05-16 19:02:00,
2013-05-16 21:03:00,71.1,57.9,29.55,SW,215,0.0,0.0,63,0.00,FEW,,0.06,0.0,WeatherDisplay:10.37,2013-05-16 19:03:00,
2013-05-16 21:06:00,71.0,58.2,29.55,SW,215,0.0,0.0,64,0.00,FEW,,0.06,0.0,WeatherDisplay:10.37,2013-05-16 19:06:00,
2013-05-16 21:07:00,71.0,58.2,29.55,SW,215,0.0,0.0,64,0.00,FEW,,0.06,0.0,WeatherDisplay:10.37,2013-05-16 19:07:00,
2013-05-16 21:08:00,70.9,58.1,29.55,SW,215,0.0,0.0,64,0.00,FEW,,0.06,0.0,WeatherDisplay:10.37,2013-05-16 19:08:00,
2013-05-16 21:12:00,70.8,58.0,29.55,SW,215,0.0,0.0,64,0.00,FEW,,0.06,0.0,WeatherDisplay:10.37,2013-05-16 19:12:00,
2013-05-16 21:13:00,70.8,58.4,29.55,SW,215,0.0,0.0,65,0.00,FEW,,0.06,0.0,WeatherDisplay:10.37,2013-05-16 19:13:00,
2013-05-16 21:14:00,70.7,58.4,29.55,SW,215,0.0,0.0,65,0.00,FEW,,0.06,0.0,WeatherDisplay:10.37,2013-05-16 19:14:00,
2013-05-16 21:17:00,70.7,58.4,29.55,SW,215,0.0,0.0,65,0.00,FEW,,0.06,0.0,WeatherDisplay:10.37,2013-05-16 19:17:00,
2013-05-16 21:18:00,70.6,58.3,29.55,SW,215,0.0,0.0,65,0.00,FEW,,0.06,0.0,WeatherDisplay:10.37,2013-05-16 19:18:00,
2013-05-16 21:19:00,70.6,58.3,29.56,SW,215,0.0,0.0,65,0.00,FEW,,0.06,0.0,WeatherDisplay:10.37,2013-05-16 19:19:00,
2013-05-16 21:22:00,70.5,58.6,29.56,SW,215,0.0,0.0,66,0.00,FEW,,0.06,0.0,WeatherDisplay:10.37,2013-05-16 19:22:00,
2013-05-16 21:23:00,70.4,58.5,29.56,SW,215,0.0,0.0,66,0.00,FEW,,0.06,0.0,WeatherDisplay:10.37,2013-05-16 19:23:00,
2013-05-16 21:24:00,70.4,58.5,29.56,SW,215,0.0,0.0,66,0.00,FEW,,0.06,0.0,WeatherDisplay:10.37,2013-05-16 19:24:00,
2013-05-16 21:27:00,70.4,58.5,29.56,SW,215,0.0,0.0,66,0.00,FEW,,0.06,0.0,WeatherDisplay:10.37,2013-05-16 19:27:00,
2013-05-16 21:28:00,70.4,58.5,29.56,SW,215,0.0,0.0,66,0.00,FEW,,0.06,0.0,WeatherDisplay:10.37,2013-05-16 19:28:00,
2013-05-16 21:30:00,70.3,58.4,29.56,WSW,252,0.0,0.0,66,0.00,FEW,,0.06,0.0,WeatherDisplay:10.37,2013-05-16 19:30:00,
2013-05-16 21:32:00,70.2,58.7,29.56,WSW,254,0.0,0.0,67,0.00,FEW,,0.06,0.0,WeatherDisplay:10.37,2013-05-16 19:32:00,
2013-05-16 21:33:00,70.2,58.7,29.56,WSW,254,0.0,0.0,67,0.00,FEW,,0.06,0.0,WeatherDisplay:10.37,2013-05-16 19:33:00,
2013-05-16 21:34:00,70.2,58.7,29.56,WSW,254,0.0,0.0,67,0.00,FEW,,0.06,0.0,WeatherDisplay:10.37,2013-05-16 19:34:00,
2013-05-16 21:35:00,70.1,58.6,29.57,WSW,252,0.0,0.0,67,0.00,FEW,,0.06,0.0,WeatherDisplay:10.37,2013-05-16 19:35:00,
2013-05-16 21:37:00,70.0,59.0,29.57,WSW,241,0.0,0.0,68,0.00,FEW,,0.06,0.0,WeatherDisplay:10.37,2013-05-16 19:37:00,
2013-05-16 21:38:00,70.0,59.0,29.57,WSW,241,0.0,0.0,68,0.00,FEW,,0.06,0.0,WeatherDisplay:10.37,2013-05-16 19:38:00,
2013-05-16 21:39:00,69.9,58.9,29.57,SSW,211,0.0,0.0,68,0.00,FEW,,0.06,0.0,WeatherDisplay:10.37,2013-05-16 19:39:00,
2013-05-16 21:40:00,69.8,58.8,29.57,SSW,213,0.0,0.0,68,0.00,FEW,,0.06,0.0,WeatherDisplay:10.37,2013-05-16 19:40:00,
2013-05-16 21:42:00,69.8,58.8,29.57,SSW,213,0.0,0.0,68,0.00,FEW,,0.06,0.0,WeatherDisplay:10.37,2013-05-16 19:42:00,
2013-05-16 21:43:00,69.8,58.8,29.57,SSW,213,0.0,0.0,68,0.00,FEW,,0.06,0.0,WeatherDisplay:10.37,2013-05-16 19:43:00,
2013-05-16 21:44:00,69.7,58.7,29.57,SW,214,0.0,0.0,68,0.00,FEW,,0.06,0.0,WeatherDisplay:10.37,2013-05-16 19:44:00,
2013-05-16 21:45:00,69.7,58.7,29.57,SW,215,0.0,0.0,68,0.00,FEW,,0.06,0.0,WeatherDisplay:10.37,2013-05-16 19:45:00,
2013-05-16 21:47:00,69.6,58.6,29.57,SW,215,0.0,0.0,68,0.00,FEW,,0.06,0.0,WeatherDisplay:10.37,2013-05-16 19:47:00,
2013-05-16 21:49:00,69.6,58.6,29.57,West,273,0.0,0.0,68,0.00,FEW,,0.06,0.0,WeatherDisplay:10.37,2013-05-16 19:49:00,
2013-05-16 21:50:00,69.6,58.6,29.57,West,274,0.0,0.0,68,0.00,FEW,,0.06,0.0,WeatherDisplay:10.37,2013-05-16 19:50:00,
2013-05-16 21:52:00,69.5,58.5,29.57,WNW,297,0.0,0.0,68,0.00,FEW,,0.06,0.0,WeatherDisplay:10.37,2013-05-16 19:52:00,
2013-05-16 21:54:00,69.4,58.4,29.57,WNW,300,0.0,0.0,68,0.00,FEW,,0.06,0.0,WeatherDisplay:10.37,2013-05-16 19:54:00,
2013-05-16 21:56:00,69.3,58.7,29.57,WNW,300,0.0,0.0,69,0.00,FEW,,0.06,0.0,WeatherDisplay:10.37,2013-05-16 19:56:00,
2013-05-16 21:57:00,69.3,58.7,29.57,WNW,300,0.0,0.0,69,0.00,FEW,,0.06,0.0,WeatherDisplay:10.37,2013-05-16 19:57:00,
2013-05-16 21:59:00,69.2,58.6,29.57,WNW,300,0.0,0.0,69,0.00,FEW,,0.06,0.0,WeatherDisplay:10.37,2013-05-16 19:59:00,
2013-05-16 22:02:00,69.1,58.5,29.57,WNW,300,0.0,0.0,69,0.00,FEW,,0.06,0.0,WeatherDisplay:10.37,2013-05-16 20:02:00,
2013-05-16 22:04:00,69.0,58.8,29.57,WNW,300,0.0,0.0,70,0.00,FEW,,0.06,0.0,WeatherDisplay:10.37,2013-05-16 20:04:00,
2013-05-16 22:07:00,68.9,58.7,29.57,WNW,300,0.0,0.0,70,0.00,FEW,,0.06,0.0,WeatherDisplay:10.37,2013-05-16 20:07:00,
2013-05-16 22:08:00,68.9,58.7,29.57,WNW,300,0.0,0.0,70,0.00,FEW,,0.06,0.0,WeatherDisplay:10.37,2013-05-16 20:08:00,
2013-05-16 22:09:00,68.9,58.7,29.57,WNW,300,0.0,0.0,70,0.00,FEW,,0.06,0.0,WeatherDisplay:10.37,2013-05-16 20:09:00,
2013-05-16 22:12:00,68.8,58.6,29.57,WNW,300,0.0,0.0,70,0.00,FEW,,0.06,0.0,WeatherDisplay:10.37,2013-05-16 20:12:00,
2013-05-16 22:13:00,68.8,58.6,29.57,WNW,300,0.0,0.0,70,0.00,FEW,,0.06,0.0,WeatherDisplay:10.37,2013-05-16 20:13:00,
2013-05-16 22:14:00,68.7,58.5,29.57,WNW,300,0.0,0.0,70,0.00,FEW,,0.06,0.0,WeatherDisplay:10.37,2013-05-16 20:14:00,
2013-05-16 22:17:00,68.7,58.9,29.57,WNW,300,0.0,0.0,71,0.00,FEW,,0.06,0.0,WeatherDisplay:10.37,2013-05-16 20:17:00,
2013-05-16 22:18:00,68.7,58.9,29.57,WNW,300,0.0,0.0,71,0.00,FEW,,0.06,0.0,WeatherDisplay:10.37,2013-05-16 20:18:00,
2013-05-16 22:19:00,68.7,58.9,29.57,WNW,300,0.0,0.0,71,0.00,FEW,,0.06,0.0,WeatherDisplay:10.37,2013-05-16 20:19:00,
2013-05-16 22:20:00,68.6,58.8,29.57,WNW,300,0.0,0.0,71,0.00,FEW,,0.06,0.0,WeatherDisplay:10.37,2013-05-16 20:20:00,
2013-05-16 22:23:00,68.6,58.8,29.58,WNW,300,0.0,0.0,71,0.00,FEW,,0.06,0.0,WeatherDisplay:10.37,2013-05-16 20:23:00,
2013-05-16 22:25:00,68.5,58.7,29.58,WNW,300,0.0,0.0,71,0.00,FEW,,0.06,0.0,WeatherDisplay:10.37,2013-05-16 20:25:00,
2013-05-16 22:28:00,68.5,58.7,29.58,WNW,300,0.0,0.0,71,0.00,FEW,,0.06,0.0,WeatherDisplay:10.37,2013-05-16 20:28:00,
2013-05-16 22:29:00,68.5,58.7,29.58,WNW,300,0.0,0.0,71,0.00,FEW,,0.06,0.0,WeatherDisplay:10.37,2013-05-16 20:29:00,
2013-05-16 22:30:00,68.5,58.7,29.57,WNW,300,0.0,0.0,71,0.00,FEW,,0.06,0.0,WeatherDisplay:10.37,2013-05-16 20:30:00,
2013-05-16 22:33:00,68.5,58.7,29.57,WNW,300,0.0,0.0,71,0.00,FEW,,0.06,0.0,WeatherDisplay:10.37,2013-05-16 20:33:00,
2013-05-16 22:34:00,68.5,58.7,29.58,WNW,300,0.0,0.0,71,0.00,FEW,,0.06,0.0,WeatherDisplay:10.37,2013-05-16 20:34:00,
2013-05-16 22:35:00,68.5,58.7,29.57,WNW,300,0.0,0.0,71,0.00,FEW,,0.06,0.0,WeatherDisplay:10.37,2013-05-16 20:35:00,
2013-05-16 22:36:00,68.5,58.7,29.57,WNW,300,0.0,0.0,71,0.00,FEW,,0.06,0.0,WeatherDisplay:10.37,2013-05-16 20:36:00,
2013-05-16 22:38:00,68.5,59.1,29.58,WNW,300,0.0,0.0,72,0.00,FEW,,0.06,0.0,WeatherDisplay:10.37,2013-05-16 20:38:00,
2013-05-16 22:39:00,68.5,59.1,29.58,WNW,300,0.0,0.0,72,0.00,FEW,,0.06,0.0,WeatherDisplay:10.37,2013-05-16 20:39:00,
2013-05-16 22:40:00,68.4,59.0,29.57,WNW,300,0.0,0.0,72,0.00,FEW,,0.06,0.0,WeatherDisplay:10.37,2013-05-16 20:40:00,
2013-05-16 22:41:00,68.4,59.0,29.57,WNW,300,0.0,0.0,72,0.00,FEW,,0.06,0.0,WeatherDisplay:10.37,2013-05-16 20:41:00,
2013-05-16 22:44:00,68.4,59.0,29.57,WNW,300,0.0,0.0,72,0.00,FEW,,0.06,0.0,WeatherDisplay:10.37,2013-05-16 20:44:00,
2013-05-16 22:45:00,68.4,59.0,29.58,WNW,300,0.0,0.0,72,0.00,FEW,,0.06,0.0,WeatherDisplay:10.37,2013-05-16 20:45:00,
2013-05-16 22:46:00,68.4,59.0,29.58,WNW,300,0.0,0.0,72,0.00,FEW,,0.06,0.0,WeatherDisplay:10.37,2013-05-16 20:46:00,
2013-05-16 22:49:00,68.4,59.0,29.57,WNW,300,0.0,0.0,72,0.00,FEW,,0.06,0.0,WeatherDisplay:10.37,2013-05-16 20:49:00,
2013-05-16 22:51:00,68.4,59.0,29.58,WNW,291,0.0,0.0,72,0.00,FEW,,0.06,0.0,WeatherDisplay:10.37,2013-05-16 20:51:00,
2013-05-16 22:54:00,68.4,59.0,29.58,WNW,289,0.0,0.0,72,0.00,FEW,,0.06,0.0,WeatherDisplay:10.37,2013-05-16 20:54:00,
2013-05-16 22:56:00,68.3,59.3,29.57,WNW,289,0.0,0.0,73,0.00,FEW,,0.06,0.0,WeatherDisplay:10.37,2013-05-16 20:56:00,
2013-05-16 22:57:00,68.3,59.3,29.57,WNW,289,0.0,0.0,73,0.00,FEW,,0.06,0.0,WeatherDisplay:10.37,2013-05-16 20:57:00,
2013-05-16 22:59:00,68.2,59.2,29.57,WNW,289,0.0,0.0,73,0.00,FEW,,0.06,0.0,WeatherDisplay:10.37,2013-05-16 20:59:00,
2013-05-16 23:00:00,68.3,59.3,29.57,WNW,289,0.0,0.0,73,0.00,FEW,,0.06,0.0,WeatherDisplay:10.37,2013-05-16 21:00:00,
2013-05-16 23:01:00,68.2,59.2,29.57,WNW,289,0.0,0.0,73,0.00,FEW,,0.06,0.0,WeatherDisplay:10.37,2013-05-16 21:01:00,
2013-05-16 23:02:00,68.2,59.2,29.57,WNW,289,0.0,0.0,73,0.00,FEW,,0.06,0.0,WeatherDisplay:10.37,2013-05-16 21:02:00,
2013-05-16 23:04:00,68.1,59.1,29.57,WNW,289,0.0,0.0,73,0.00,FEW,,0.06,0.0,WeatherDisplay:10.37,2013-05-16 21:04:00,
2013-05-16 23:05:00,68.1,59.1,29.57,WNW,289,0.0,0.0,73,0.00,FEW,,0.06,0.0,WeatherDisplay:10.37,2013-05-16 21:05:00,
2013-05-16 23:06:00,68.1,59.1,29.57,WNW,289,0.0,0.0,73,0.00,FEW,,0.06,0.0,WeatherDisplay:10.37,2013-05-16 21:06:00,
2013-05-16 23:07:00,68.1,59.1,29.57,WNW,289,0.0,0.0,73,0.00,FEW,,0.06,0.0,WeatherDisplay:10.37,2013-05-16 21:07:00,
2013-05-16 23:09:00,68.1,59.5,29.57,WNW,289,0.0,0.0,74,0.00,FEW,,0.06,0.0,WeatherDisplay:10.37,2013-05-16 21:09:00,
2013-05-16 23:11:00,68.1,59.5,29.57,WNW,289,0.0,0.0,74,0.00,FEW,,0.06,0.0,WeatherDisplay:10.37,2013-05-16 21:11:00,
2013-05-16 23:12:00,68.1,59.5,29.57,WNW,289,0.0,0.0,74,0.00,FEW,,0.06,0.0,WeatherDisplay:10.37,2013-05-16 21:12:00,
2013-05-16 23:15:00,68.0,59.4,29.57,WNW,289,0.0,0.0,74,0.00,FEW,,0.06,0.0,WeatherDisplay:10.37,2013-05-16 21:15:00,
2013-05-16 23:16:00,68.0,59.4,29.57,WNW,289,0.0,0.0,74,0.00,FEW,,0.06,0.0,WeatherDisplay:10.37,2013-05-16 21:16:00,
2013-05-16 23:17:00,68.0,59.4,29.57,WNW,289,0.0,0.0,74,0.00,FEW,,0.06,0.0,WeatherDisplay:10.37,2013-05-16 21:17:00,
2013-05-16 23:18:00,68.0,59.4,29.57,WNW,289,0.0,0.0,74,0.00,FEW,,0.06,0.0,WeatherDisplay:10.37,2013-05-16 21:18:00,
2013-05-16 23:20:00,67.9,59.3,29.57,WNW,289,0.0,0.0,74,0.00,FEW,,0.06,0.0,WeatherDisplay:10.37,2013-05-16 21:20:00,
2013-05-16 23:21:00,68.0,59.4,29.56,WNW,289,0.0,0.0,74,0.00,FEW,,0.06,0.0,WeatherDisplay:10.37,2013-05-16 21:21:00,
2013-05-16 23:22:00,68.0,59.4,29.57,WNW,289,0.0,0.0,74,0.00,FEW,,0.06,0.0,WeatherDisplay:10.37,2013-05-16 21:22:00,
2013-05-16 23:23:00,68.0,59.4,29.57,WNW,289,0.0,0.0,74,0.00,FEW,,0.06,0.0,WeatherDisplay:10.37,2013-05-16 21:23:00,
2013-05-16 23:25:00,68.0,59.4,29.57,WNW,284,0.0,0.0,74,0.00,FEW,,0.06,0.0,WeatherDisplay:10.37,2013-05-16 21:25:00,
2013-05-16 23:26:00,67.9,59.3,29.56,WNW,284,0.0,0.0,74,0.00,FEW,,0.06,0.0,WeatherDisplay:10.37,2013-05-16 21:26:00,
2013-05-16 23:27:00,67.9,59.3,29.56,WNW,284,0.0,0.0,74,0.00,FEW,,0.06,0.0,WeatherDisplay:10.37,2013-05-16 21:27:00,
2013-05-16 23:29:00,67.9,59.3,29.56,WNW,284,0.0,0.0,74,0.00,FEW,,0.06,0.0,WeatherDisplay:10.37,2013-05-16 21:29:00,
2013-05-16 23:30:00,67.9,59.3,29.56,WNW,284,0.0,0.0,74,0.00,FEW,,0.06,0.0,WeatherDisplay:10.37,2013-05-16 21:30:00,
2013-05-16 23:31:00,67.9,59.3,29.56,WNW,284,0.0,0.0,74,0.00,FEW,,0.06,0.0,WeatherDisplay:10.37,2013-05-16 21:31:00,
2013-05-16 23:32:00,67.9,59.3,29.57,SSE,155,0.0,0.0,74,0.00,FEW,,0.06,0.0,WeatherDisplay:10.37,2013-05-16 21:32:00,
2013-05-16 23:33:00,67.9,59.3,29.57,SSE,155,0.0,0.0,74,0.00,FEW,,0.06,0.0,WeatherDisplay:10.37,2013-05-16 21:33:00,
2013-05-16 23:34:00,67.8,59.2,29.57,SSE,155,0.0,0.0,74,0.00,FEW,,0.06,0.0,WeatherDisplay:10.37,2013-05-16 21:34:00,
2013-05-16 23:35:00,67.8,59.2,29.57,SSE,155,0.0,0.0,74,0.00,FEW,,0.06,0.0,WeatherDisplay:10.37,2013-05-16 21:35:00,
2013-05-16 23:36:00,67.8,59.2,29.57,SSE,155,0.0,0.0,74,0.00,FEW,,0.06,0.0,WeatherDisplay:10.37,2013-05-16 21:36:00,
2013-05-16 23:38:00,67.8,59.2,29.57,SSE,155,0.0,0.0,74,0.00,FEW,,0.06,0.0,WeatherDisplay:10.37,2013-05-16 21:38:00,
2013-05-16 23:39:00,67.8,59.2,29.57,SSE,155,0.0,0.0,74,0.00,FEW,,0.06,0.0,WeatherDisplay:10.37,2013-05-16 21:39:00,
2013-05-16 23:41:00,67.8,59.2,29.57,SSE,155,0.0,0.0,74,0.00,FEW,,0.06,0.0,WeatherDisplay:10.37,2013-05-16 21:41:00,
2013-05-16 23:42:00,67.8,59.2,29.57,SSE,155,0.0,0.0,74,0.00,FEW,,0.06,0.0,WeatherDisplay:10.37,2013-05-16 21:42:00,
2013-05-16 23:43:00,67.8,59.2,29.56,SSE,155,0.0,0.0,74,0.00,FEW,,0.06,0.0,WeatherDisplay:10.37,2013-05-16 21:43:00,
2013-05-16 23:44:00,67.8,59.2,29.56,SSE,155,0.0,0.0,74,0.00,FEW,,0.06,0.0,WeatherDisplay:10.37,2013-05-16 21:44:00,
2013-05-16 23:46:00,67.7,59.1,29.56,SSE,155,0.0,0.0,74,0.00,FEW,,0.06,0.0,WeatherDisplay:10.37,2013-05-16 21:46:00,
2013-05-16 23:48:00,67.7,59.1,29.56,SSE,155,0.0,0.0,74,0.00,FEW,,0.06,0.0,WeatherDisplay:10.37,2013-05-16 21:48:00,
2013-05-16 23:49:00,67.7,59.1,29.57,SSE,155,0.0,0.0,74,0.00,FEW,,0.06,0.0,WeatherDisplay:10.37,2013-05-16 21:49:00,
2013-05-16 23:52:00,67.7,59.1,29.56,SSE,155,0.0,0.0,74,0.00,FEW,,0.06,0.0,WeatherDisplay:10.37,2013-05-16 21:52:00,
2013-05-16 23:53:00,67.7,59.1,29.56,SSE,155,0.0,0.0,74,0.00,FEW,,0.06,0.0,WeatherDisplay:10.37,2013-05-16 21:53:00,
2013-05-16 23:54:00,67.6,59.0,29.56,SSE,155,0.0,0.0,74,0.00,FEW,,0.06,0.0,WeatherDisplay:10.37,2013-05-16 21:54:00,
2013-05-16 23:55:00,67.6,59.0,29.57,SSE,155,0.0,0.0,74,0.00,FEW,,0.06,0.0,WeatherDisplay:10.37,2013-05-16 21:55:00,
2013-05-16 23:58:00,67.6,59.0,29.57,SSE,155,0.0,0.0,74,0.00,FEW,,0.06,0.0,WeatherDisplay:10.37,2013-05-16 21:58:00,
2013-05-16 23:59:00,67.6,59.0,29.57,SSE,155,0.0,0.0,74,0.00,FEW,,0.06,0.0,WeatherDisplay:10.37,2013-05-16 21:59:00,